New Companies Registered in the Month of Oct 21 in Karnataka

Company NameCompany CINCountryStateDate Of Incorporation
NADAHALLI RESORTS AND WATER SPORTS PRIVATE LIMITEDU55101KA2021PTC152638IndiaKarnataka01-10-2021
OMAS AGRO EXPORTS PRIVATE LIMITEDU51211KA2021PTC152643IndiaKarnataka01-10-2021
SAMBHAAVYA CONSULTING INDIA (OPC) PRIVATE LIMITEDU74140KA2021OPC152628IndiaKarnataka01-10-2021
CHINNAKOTLA (OPC) PRIVATE LIMITEDU72900KA2021OPC152612IndiaKarnataka01-10-2021
VIROSH CONSULTING SERVICES PRIVATE LIMITEDU72900KA2021PTC152597IndiaKarnataka01-10-2021
BRYOPHYLLUM TECHNOLOGY PRIVATE LIMITEDU72900KA2021PTC152604IndiaKarnataka01-10-2021
VING HYBRID TECHNOLOGIES INDIA PRIVATE LIMITEDU72900KA2021PTC152606IndiaKarnataka01-10-2021
ZELIGUE ENGINEERING PRIVATE LIMITEDU72900KA2021PTC152609IndiaKarnataka01-10-2021
KALPKRITI CONCEPTS PRIVATE LIMITEDU74900KA2021PTC152637IndiaKarnataka01-10-2021
PEMENT TECHNOLOGY PRIVATE LIMITEDU72900KA2021PTC152613IndiaKarnataka01-10-2021
CALBYTE TECHNOLOGIES PRIVATE LIMITEDU72900KA2021PTC152614IndiaKarnataka01-10-2021
STYLER INFOTECH PRIVATE LIMITEDU72900KA2021PTC152617IndiaKarnataka01-10-2021
AIRBOUND AEROSPACE PRIVATE LIMITEDU62100KA2021PTC152640IndiaKarnataka01-10-2021
GKN AUTOMOTIVE BENGALURU PRIVATE LIMITEDU74997KA2021FTC152610IndiaKarnataka01-10-2021
GREENFLOWER INFOTECH PRIVATE LIMITEDU72900KA2021PTC152619IndiaKarnataka01-10-2021
PARTNR SUBSPACES PRIVATE LIMITEDU72900KA2021PTC152621IndiaKarnataka01-10-2021
CAI TECHNOLOGIES PRIVATE LIMITEDU72900KA2021PTC152623IndiaKarnataka01-10-2021
HAPPY INDIGENOUS PETS PRIVATE LIMITEDU51909KA2021PTC152595IndiaKarnataka01-10-2021
SVRN TECHNOLOGIES PRIVATE LIMITEDU72900KA2021PTC152625IndiaKarnataka01-10-2021
SIVELI TECH PRIVATE LIMITEDU72900KA2021PTC152626IndiaKarnataka01-10-2021
ODINMO TECHNOLOGIES PRIVATE LIMITEDU72900KA2021PTC152629IndiaKarnataka01-10-2021
FINSCIENCE TECHNOLOGIES PRIVATE LIMITEDU72900KA2021PTC152632IndiaKarnataka01-10-2021
PRIMEVLSI PRIVATE LIMITEDU72900KA2021PTC152633IndiaKarnataka01-10-2021
YOUNGTH LAD PRIVATE LIMITEDU72900KA2021PTC152636IndiaKarnataka01-10-2021
EVERNEST OFFICE PARKS PRIVATE LIMITEDU70100KA2021PTC152603IndiaKarnataka01-10-2021
XPOVAL TECHNOLOGY SOLUTIONS PRIVATE LIMITEDU72900KA2021PTC152641IndiaKarnataka01-10-2021
CLASSIC STUDIOS PRIVATE LIMITEDU92490KA2021PTC152602IndiaKarnataka01-10-2021
HOSANAGARA FARMERS PRODUCER COMPANY LIMITEDU01409KA2021PTC152596IndiaKarnataka01-10-2021
OMHAVERI KISAN PRODUCER COMPANY LIMITEDU01100KA2021PTC152635IndiaKarnataka01-10-2021
L2 MEDICAL VENTURE PRIVATE LIMITEDU85100KA2021PTC152642IndiaKarnataka01-10-2021
ROZZGAR HR MANAGEMENT PRIVATE LIMITEDU74999KA2021PTC152599IndiaKarnataka01-10-2021
THINKALL ACADEMY PRIVATE LIMITEDU74999KA2021PTC152600IndiaKarnataka01-10-2021
CHATEAUX SHELTERS PRIVATE LIMITEDU45309KA2021PTC152627IndiaKarnataka01-10-2021
ABSOLUTEMENS.COM FASHION SERVICES PRIVATE LIMITEDU52322KA2021PTC152620IndiaKarnataka01-10-2021
TEERA ALLIED AND SECURITY SERVICES PRIVATE LIMITEDU74999KA2021PTC152601IndiaKarnataka01-10-2021
UNICO DESIGN STUDIO PRIVATE LIMITEDU74999KA2021PTC152605IndiaKarnataka01-10-2021
SHOPPRE GLOBAL PRIVATE LIMITEDU74999KA2021PTC152607IndiaKarnataka01-10-2021
RASHI INOTECH PRIVATE LIMITEDU74999KA2021PTC152608IndiaKarnataka01-10-2021
VITHIKART TECHNOLOGIES PRIVATE LIMITEDU72200KA2021PTC152598IndiaKarnataka01-10-2021
SRIDEV MANPOWER & SECURITY SERVICES PRIVATE LIMITEDU74999KA2021PTC152616IndiaKarnataka01-10-2021
AADHIT TECHNOLOGIES PRIVATE LIMITEDU72200KA2021PTC152639IndiaKarnataka01-10-2021
PHARMACY ONE NETWORK PRIVATE LIMITEDU74999KA2021PTC152622IndiaKarnataka01-10-2021
MAGIC MYNA PRIVATE LIMITEDU34300KA2021PTC152594IndiaKarnataka01-10-2021
AADHIT JEWELS AND PRECIOUS STONES PRIVATE LIMITEDU36911KA2021PTC152630IndiaKarnataka01-10-2021
ISIRI HEALTHCARE PRIVATE LIMITEDU24290KA2021PTC152618IndiaKarnataka01-10-2021
GREY BRICKS CONSULTANTS PRIVATE LIMITEDU45500KA2021PTC152615IndiaKarnataka01-10-2021
UNIQUE-Q TECH INDIA PRIVATE LIMITEDU29309KA2021PTC152634IndiaKarnataka01-10-2021
EVERNEST INDUSTRIAL PARK PRIVATE LIMITEDU70109KA2021PTC152631IndiaKarnataka01-10-2021
PURE1 FARMS PRIVATE LIMITEDU15490KA2021PTC152611IndiaKarnataka01-10-2021
MY BABY ROOM PRIVATE LIMITEDU18101KA2021PTC152624IndiaKarnataka01-10-2021
GBL NUTRITION AND WELLNESS PRIVATE LIMITEDU24290KA2021FTC152687IndiaKarnataka04-10-2021
AATAPATA TECH INDIA PRIVATE LIMITEDU72900KA2021PTC152675IndiaKarnataka04-10-2021
OPRIMES SOLUTIONS PRIVATE LIMITEDU72900KA2021PTC152684IndiaKarnataka04-10-2021
AVIGIRI GLOBAL INVESTMENT PRIVATE LIMITEDU67190KA2021PTC152681IndiaKarnataka04-10-2021
MOVIDU TECHNOLOGY PRIVATE LIMITEDU80301KA2021PTC152679IndiaKarnataka04-10-2021
STARLIT ASSETZ PRIVATE LIMITEDU70100KA2021PTC152677IndiaKarnataka04-10-2021
MITRAVINDA BUILDTECH PRIVATE LIMITEDU70109KA2021PTC152650IndiaKarnataka04-10-2021
SIRUGUPPA FARMERS PRODUCER COMPANY LIMITEDU01100KA2021PTC152668IndiaKarnataka04-10-2021
ANT EDUCATION PRIVATE LIMITEDU80903KA2021PTC152645IndiaKarnataka04-10-2021
EGOMAA PHARMA PRIVATE LIMITEDU24299KA2021PTC152660IndiaKarnataka04-10-2021
MEDINOSTICS LIFESCIENCES PRIVATE LIMITEDU85100KA2021PTC152655IndiaKarnataka04-10-2021
MUNCHR FOODS PRIVATE LIMITEDU15540KA2021PTC152689IndiaKarnataka04-10-2021
SS SAVITRI PRIVATE LIMITEDU15549KA2021PTC152658IndiaKarnataka04-10-2021
ELETTAPIPER FOOD PRODUCTS PRIVATE LIMITEDU15549KA2021PTC152661IndiaKarnataka04-10-2021
IBHD CONSULTING PRIVATE LIMITEDU74999KA2021FTC152653IndiaKarnataka04-10-2021
BAYLEAF CONSULTING PRIVATE LIMITEDU74999KA2021PTC152651IndiaKarnataka04-10-2021
PRESCOM TECHNOLOGIES PRIVATE LIMITEDU74999KA2021PTC152657IndiaKarnataka04-10-2021
ORVA ENERGY PRIVATE LIMITEDU74999KA2021PTC152664IndiaKarnataka04-10-2021
BRANDFIRST CREATIONS PRIVATE LIMITEDU74999KA2021PTC152673IndiaKarnataka04-10-2021
KHAYATI PIPES AND POWER PRIVATE LIMITEDU27100KA2021PTC152674IndiaKarnataka04-10-2021
SNH SOFI SOLUTIONS PRIVATE LIMITEDU74999KA2021PTC152688IndiaKarnataka04-10-2021
HDSL SOLUTIONS INDIA (OPC) PRIVATE LIMITEDU29110KA2021OPC152665IndiaKarnataka04-10-2021
PRS BIZ VENTURES PRIVATE LIMITEDU45309KA2021PTC152663IndiaKarnataka04-10-2021
VIVARDHANA INFRA PRIVATE LIMITEDU45309KA2021PTC152676IndiaKarnataka04-10-2021
PRESENT MA’AM PRIVATE LIMITEDU72200KA2021PTC152670IndiaKarnataka04-10-2021
JSIT INFRA SOLUTIONS PRIVATE LIMITEDU72200KA2021PTC152685IndiaKarnataka04-10-2021
POCKETFUL OF SUNSHINE PRIVATE LIMITEDU52100KA2021PTC152646IndiaKarnataka04-10-2021
INDAAN E COMMERCE PRIVATE LIMITEDU52390KA2021PTC152656IndiaKarnataka04-10-2021
JOI VITT BUILDERS AND CONSULTANTS PRIVATE LIMITEDU45400KA2021PTC152690IndiaKarnataka04-10-2021
ZT COMMUNICATIONS PRIVATE LIMITEDU64204KA2021PTC152686IndiaKarnataka04-10-2021
DRONA MANAGED SERVICES (OPC) PRIVATE LIMITEDU74140KA2021OPC152671IndiaKarnataka04-10-2021
PRAJATHATHVA MULTI SERVICES PRIVATE LIMITEDU92490KA2021PTC152683IndiaKarnataka04-10-2021
MEENA REGALIIA PRIVATE LIMITEDU52393KA2021PTC152666IndiaKarnataka04-10-2021
AARNI INFO NETWORK PRIVATE LIMITEDU22219KA2021PTC152667IndiaKarnataka04-10-2021
PISULO PRIVATE LIMITEDU72502KA2021PTC152649IndiaKarnataka04-10-2021
BELAKU INNOVATIONS PRIVATE LIMITEDU50100KA2021PTC152659IndiaKarnataka04-10-2021
PRO LUXURY MOTORZ (OPC) PRIVATE LIMITEDU50200KA2021OPC152678IndiaKarnataka04-10-2021
SALONBASKET.COM PRIVATE LIMITEDU93020KA2021PTC152672IndiaKarnataka04-10-2021
WISEDRIVE TECHNOLOGIES PRIVATE LIMITEDU50200KA2021PTC152682IndiaKarnataka04-10-2021
PELIKAS LIFESTYLES PRIVATE LIMITEDU52590KA2021PTC152680IndiaKarnataka04-10-2021
RIGHTCLIQ NOTIONS PRIVATE LIMITEDU93090KA2021PTC152647IndiaKarnataka04-10-2021
LUSSO CASSANO PRIVATE LIMITEDU36100KA2021PTC152654IndiaKarnataka04-10-2021
CLIPBAIT MEDIA PRIVATE LIMITEDU74940KA2021PTC152669IndiaKarnataka04-10-2021
TALIKOTI RURAL CHIT FUNDS PRIVATE LIMITEDU65992KA2021PTC152652IndiaKarnataka04-10-2021
ANUGRAHA MOTORS PRIVATE LIMITEDU50403KA2021PTC152644IndiaKarnataka04-10-2021
CREATIONISTO SOLUTION PRIVATE LIMITEDU72900KA2021PTC152648IndiaKarnataka04-10-2021
STS.AI SOFTWARE SYSTEMS PRIVATE LIMITEDU72900KA2021PTC152662IndiaKarnataka04-10-2021
NEELCO MOTORS PRIVATE LIMITEDU50400KA2021PTC152691IndiaKarnataka05-10-2021
RENEW 4 U AUTOMOBILES PRIVATE LIMITEDU50400KA2021PTC152728IndiaKarnataka05-10-2021
KHANTHI TRENDS PRIVATE LIMITEDU51310KA2021PTC152734IndiaKarnataka05-10-2021
ROYAL VK PRIVATE LIMITEDU51909KA2021PTC152696IndiaKarnataka05-10-2021
360 FRESH FARM AGRO PRIVATE LIMITEDU52202KA2021PTC152717IndiaKarnataka05-10-2021
ELAIN CAFE PRIVATE LIMITEDU55101KA2021PTC152711IndiaKarnataka05-10-2021
LUDRICKS SERVICES PRIVATE LIMITEDU55209KA2021PTC152724IndiaKarnataka05-10-2021
BLUE ESCAPES WORLD TOURS PRIVATE LIMITEDU63030KA2021PTC152735IndiaKarnataka05-10-2021
KASHISH NIDHI LIMITEDU65929KA2021PLN152707IndiaKarnataka05-10-2021
NEWS FIRST FLAY CHITS PRIVATE LIMITEDU65999KA2021PTC152704IndiaKarnataka05-10-2021
UDAGI BUILDERS (OPC) PRIVATE LIMITEDU70109KA2021OPC152719IndiaKarnataka05-10-2021
XBEREIT INTERNATIONAL PRIVATE LIMITEDU72200KA2021PTC152712IndiaKarnataka05-10-2021
E2I PRO TECHNOLOGIES (OPC) PRIVATE LIMITEDU72900KA2021OPC152721IndiaKarnataka05-10-2021
VARADHAN SOFTWARE TECHNOLOGIES PRIVATE LIMITEDU72900KA2021PTC152702IndiaKarnataka05-10-2021
THYLEADS PRIVATE LIMITEDU72900KA2021PTC152703IndiaKarnataka05-10-2021
CLUTTERBOT TECHNOLOGIES PRIVATE LIMITEDU72900KA2021PTC152716IndiaKarnataka05-10-2021
MAMBA VENOM PRIVATE LIMITEDU72900KA2021PTC152726IndiaKarnataka05-10-2021
FLUXGEN SUSTAINABLE TECHNOLOGIES PRIVATE LIMITEDU72900KA2021PTC152729IndiaKarnataka05-10-2021
TRIWAY COMMUNICATIONS PRIVATE LIMITEDU72900KA2021PTC152736IndiaKarnataka05-10-2021
APPSPOT SOFTWARE INDIA PRIVATE LIMITEDU72900KA2021PTC152739IndiaKarnataka05-10-2021
SN HIRING LAB PRIVATE LIMITEDU74990KA2021PTC152713IndiaKarnataka05-10-2021
TEKDYNAMICS PRIVATE LIMITEDU74999KA2021PTC152695IndiaKarnataka05-10-2021
SOLVEEASY TECHNOLOGIES PRIVATE LIMITEDU74999KA2021PTC152698IndiaKarnataka05-10-2021
6 SIGMA ACCOUNTING DESK PRIVATE LIMITEDU74999KA2021PTC152700IndiaKarnataka05-10-2021
PANDEY BROTHERS POWDER COAT & ENGINEERING SERVICES PRIVATE LIMITEDU74999KA2021PTC152723IndiaKarnataka05-10-2021
URBANITE SOLUTIONS PRIVATE LIMITEDU74999KA2021PTC152740IndiaKarnataka05-10-2021
ANAGHA STARTUP MINDS INDIA PRIVATE LIMITEDU74999KA2021PTC152742IndiaKarnataka05-10-2021
DEFCOL GLOBAL BUSINESS SERVICES PRIVATE LIMITEDU74999KA2021PTC152743IndiaKarnataka05-10-2021
DHANAMMA AGRO PRODUCER COMPANY LIMITEDU01100KA2021PTC152733IndiaKarnataka05-10-2021
SHRAMIK MITRA FARMERS PRODUCER COMPANY LIMITEDU01100KA2021PTC152738IndiaKarnataka05-10-2021
SHREE SAIRAMA FOODS & BEVERAGES (OPC) PRIVATE LIMITEDU15490KA2021OPC152722IndiaKarnataka05-10-2021
SRINGERI AQUATECH PRIVATE LIMITEDU15490KA2021PTC152725IndiaKarnataka05-10-2021
FIRU GARMENTS PRIVATE LIMITEDU17299KA2021PTC152701IndiaKarnataka05-10-2021
RITMED BIOTECH PRIVATE LIMITEDU24230KA2021PTC152709IndiaKarnataka05-10-2021
BLUEMARLIN PHARMACEUTICAL PRIVATE LIMITEDU24290KA2021PTC152737IndiaKarnataka05-10-2021
TRUSTRIDGE SERVICE CENTER (OPC) PRIVATE LIMITEDU29309KA2021OPC152699IndiaKarnataka05-10-2021
QUBIX OAK INDIA PRIVATE LIMITEDU36109KA2021PTC152727IndiaKarnataka05-10-2021
MENTSU INFRA PRIVATE LIMITEDU45202KA2021PTC152731IndiaKarnataka05-10-2021
PROLATE ENGINEERING SERVICES PRIVATE LIMITEDU45203KA2021PTC152692IndiaKarnataka05-10-2021
IJK GOLDEN CONSTRUCTIONS AND INFRA PRIVATE LIMITEDU45203KA2021PTC152732IndiaKarnataka05-10-2021
R H CONSTRUCTION AND DEVELOPERS PRIVATE LIMITEDU45209KA2021PTC152694IndiaKarnataka05-10-2021
ATBE CONSTRUCTIONS PRIVATE LIMITEDU45209KA2021PTC152706IndiaKarnataka05-10-2021
ZNANA EDUCATIONAL SERVICES (OPC) PRIVATE LIMITEDU80302KA2021OPC152710IndiaKarnataka05-10-2021
LEARNING ALCHEMY PRIVATE LIMITEDU80903KA2021PTC152708IndiaKarnataka05-10-2021
VTEACH ACADEMY PRIVATE LIMITEDU80903KA2021PTC152720IndiaKarnataka05-10-2021
SARALSIDDHI PRIVATE LIMITEDU85100KA2021PTC152705IndiaKarnataka05-10-2021
DRM MITRA PRIVATE LIMITEDU85100KA2021PTC152714IndiaKarnataka05-10-2021
TRUARK HEALTHCARE PRIVATE LIMITEDU85100KA2021PTC152730IndiaKarnataka05-10-2021
INDEPENDENT LIVING SOLUTIONS (OPC) PRIVATE LIMITEDU85190KA2021OPC152715IndiaKarnataka05-10-2021
VRIKSHAMITRA FOUNDATIONU85300KA2021NPL152718IndiaKarnataka05-10-2021
SHREE BHOUVANA VISHWAKARMA GOLDSMITH ASSOCIATIONU85300KA2021NPL152741IndiaKarnataka05-10-2021
UNNATHI GLOBAL IMAGING & DIAGNOSTICS PRIVATE LIMITEDU85300KA2021PTC152693IndiaKarnataka05-10-2021
MYGATEDSOCIETY SERVICES PRIVATE LIMITEDU93090KA2021PTC152697IndiaKarnataka05-10-2021
MARUTIGYPSUM INDIA PRIVATE LIMITEDU26999KA2021PTC152777IndiaKarnataka06-10-2021
AEVY VENTURES PRIVATE LIMITEDU72900KA2021PTC152762IndiaKarnataka06-10-2021
A1 SOFTWARE AND TECHNOLOGY SOLUTIONS PRIVATE LIMITEDU72900KA2021PTC152763IndiaKarnataka06-10-2021
NAVADANYA SEEDS PRIVATE LIMITEDU01100KA2021PTC152770IndiaKarnataka06-10-2021
ADVECHA TECHNOLOGIES PRIVATE LIMITEDU72900KA2021PTC152764IndiaKarnataka06-10-2021
NVSS CONSTRUCTIONS PRIVATE LIMITEDU45209KA2021PTC152761IndiaKarnataka06-10-2021
ATAYA DIGITAL PRIVATE LIMITEDU72900KA2021PTC152765IndiaKarnataka06-10-2021
TECHBODH PRIVATE LIMITEDU72900KA2021PTC152778IndiaKarnataka06-10-2021
ASCENT FUND SERVICES (INDIA) PRIVATE LIMITEDU74999KA2021FTC152768IndiaKarnataka06-10-2021
AADHIT PROPERTY DEVELOPERS PRIVATE LIMITEDU70200KA2021PTC152772IndiaKarnataka06-10-2021
GOLDENBARREL TECHNOLOGIES PRIVATE LIMITEDU74999KA2021PTC152748IndiaKarnataka06-10-2021
AARAV HR CONSULTANCY PRIVATE LIMITEDU74999KA2021PTC152767IndiaKarnataka06-10-2021
TENSOR TEXTILES PRIVATE LIMITEDU17299KA2021PTC152746IndiaKarnataka06-10-2021
VELSTAND VENTURES PRIVATE LIMITEDU74999KA2021PTC152773IndiaKarnataka06-10-2021
KALVI CAREER EDUCATION PRIVATE LIMITEDU80900KA2021PTC152758IndiaKarnataka06-10-2021
ROOFFUND REALTY SERVICES PRIVATE LIMITEDU70103KA2021PTC152752IndiaKarnataka06-10-2021
MOKSH ENTERPRISES PRIVATE LIMITEDU51909KA2021PTC152759IndiaKarnataka06-10-2021
NANDANA MAGNOLIOUS PRIVATE LIMITEDU92490KA2021PTC152771IndiaKarnataka06-10-2021
MULTIGREEN ENERGY INDIA PRIVATE LIMITEDU40300KA2021PTC152749IndiaKarnataka06-10-2021
SRI SATHYA SAI GOKULAM DAIRY PRODUCTS PRIVATE LIMITEDU15490KA2021PTC152753IndiaKarnataka06-10-2021
RSCART ONLINE SERVICES PRIVATE LIMITEDU52399KA2021PTC152747IndiaKarnataka06-10-2021
AVITRCORP (OPC) PRIVATE LIMITEDU72200KA2021OPC152774IndiaKarnataka06-10-2021
DIGITAL WALLS CONSULTING PRIVATE LIMITEDU72200KA2021PTC152756IndiaKarnataka06-10-2021
EMIDAS TECHNOLOGY PRIVATE LIMITEDU72200KA2021PTC152760IndiaKarnataka06-10-2021
MTOD ECOMMERCE PRIVATE LIMITEDU52500KA2021PTC152775IndiaKarnataka06-10-2021
FLORISTFORU PRIVATE LIMITEDU52590KA2021PTC152745IndiaKarnataka06-10-2021
J N GOLD BUYERS PRIVATE LIMITEDU52590KA2021PTC152750IndiaKarnataka06-10-2021
KARUNADU TV HOUSE MEDIA AND BROADCAST PRIVATE LIMITEDU22300KA2021PTC152744IndiaKarnataka06-10-2021
NHK MEDICAL PRIVATE LIMITEDU85300KA2021PTC152754IndiaKarnataka06-10-2021
MCUBE HOSPITALITY PRIVATE LIMITEDU55101KA2021PTC152776IndiaKarnataka06-10-2021
AZAH EXPORT INTERNATIONAL PRIVATE LIMITEDU51221KA2021PTC152755IndiaKarnataka06-10-2021
NANDARAJ FARMERS PRODUCER COMPANY LIMITEDU01110KA2021PTC152757IndiaKarnataka06-10-2021
SOCIAL WEB CLUB PRIVATE LIMITEDU74140KA2021PTC152751IndiaKarnataka06-10-2021
JNYAPITH SOLUTIONS PRIVATE LIMITEDU74140KA2021PTC152766IndiaKarnataka06-10-2021
MACMAN INVESTORS PRIVATE LIMITEDU67190KA2021PTC152769IndiaKarnataka06-10-2021
SHIVA-SHAKTHI TECHNO CONSULTANTS PRIVATELIMITEDU45200KA2021PTC152827IndiaKarnataka07-10-2021
CATALYSTS TEAM SOLUTIONS (OPC) PRIVATE LIMITEDU74999KA2021OPC152784IndiaKarnataka07-10-2021
ECANB’ SERVICES (OPC) PRIVATE LIMITEDU74999KA2021OPC152791IndiaKarnataka07-10-2021
RAKSHANAM ENTERPRISES (OPC) PRIVATE LIMITEDU74999KA2021OPC152813IndiaKarnataka07-10-2021
VEECREW RESOURCES PRIVATE LIMITEDU74999KA2021PTC152800IndiaKarnataka07-10-2021
FAST ARK PRIVATE LIMITEDU74999KA2021PTC152803IndiaKarnataka07-10-2021
JARSPACE CONSULTANTS PRIVATE LIMITEDU74999KA2021PTC152806IndiaKarnataka07-10-2021
AHIJA ELECTRIC PRIVATE LIMITEDU63030KA2021PTC152790IndiaKarnataka07-10-2021
RAJWARE SERVICES PRIVATE LIMITEDU74999KA2021PTC152812IndiaKarnataka07-10-2021
FLYEXX LEISURE PRIVATE LIMITEDU63030KA2021PTC152817IndiaKarnataka07-10-2021
HOSABELAKU FARMER PRODUCER COMPANY LIMITEDU01100KA2021PTC152786IndiaKarnataka07-10-2021
KUDLIGI THALUKA FARMERS PRODUCER COMPANYLIMITEDU01100KA2021PTC152811IndiaKarnataka07-10-2021
DARUKA INDUSTRIAL SOLUTIONS PRIVATE LIMITEDU29100KA2021PTC152799IndiaKarnataka07-10-2021
WORKBELL TECHNOLOGIES PRIVATE LIMITEDU72200KA2021PTC152829IndiaKarnataka07-10-2021
VERVE BRANDS PRIVATE LIMITEDU52100KA2021PTC152815IndiaKarnataka07-10-2021
HARDIN STRUCTURES PRIVATE LIMITEDU45309KA2021PTC152801IndiaKarnataka07-10-2021
BANGALORE TOWER PRIVATE LIMITEDU45309KA2021PTC152825IndiaKarnataka07-10-2021
INMF ENTREPRENEURS (OPC) PRIVATE LIMITEDU52209KA2021OPC152794IndiaKarnataka07-10-2021
METRIQ INSTRUMENTS PRIVATE LIMITEDU31500KA2021PTC152792IndiaKarnataka07-10-2021
AUTONETIC CONTROLS PRIVATE LIMITEDU31900KA2021PTC152823IndiaKarnataka07-10-2021
SNEHABINDU CHITS PRIVATE LIMITEDU65992KA2021PTC152821IndiaKarnataka07-10-2021
MASKI CHITS PRIVATE LIMITEDU65999KA2021PTC152809IndiaKarnataka07-10-2021
MIKAELSONS BREW PRIVATE LIMITEDU52390KA2021PTC152782IndiaKarnataka07-10-2021
ANB SPORTS PRIVATE LIMITEDU52399KA2021PTC152816IndiaKarnataka07-10-2021
NIBU X BRANDS PRIVATE LIMITEDU52599KA2021PTC152785IndiaKarnataka07-10-2021
NXTGEN INDIA WEALTH FINSERV PRIVATE LIMITEDU67100KA2021PTC152808IndiaKarnataka07-10-2021
DIGIPLEDGE CONSULTING PRIVATE LIMITEDU67100KA2021PTC152831IndiaKarnataka07-10-2021
INVOIZO PRIVATE LIMITEDU72900KA2021PTC152779IndiaKarnataka07-10-2021
ISARVA INFOTECH PRIVATE LIMITEDU72900KA2021PTC152781IndiaKarnataka07-10-2021
VIDYUTHYAAN PRIVATE LIMITEDU34100KA2021PTC152804IndiaKarnataka07-10-2021
BNP INFOTECH PRIVATE LIMITEDU72900KA2021PTC152787IndiaKarnataka07-10-2021
SEMICONTRONICS PRIVATE LIMITEDU72900KA2021PTC152788IndiaKarnataka07-10-2021
PRISHTHAS PRIVATE LIMITEDU55101KA2021PTC152795IndiaKarnataka07-10-2021
EDFORCE SOLUTIONS PRIVATE LIMITEDU72900KA2021PTC152796IndiaKarnataka07-10-2021
NUTRISUKAN BIOTECH PRIVATE LIMITEDU24297KA2021PTC152797IndiaKarnataka07-10-2021
OPENPAYEE STACK TECHNOLOGIES PRIVATE LIMITEDU72900KA2021PTC152805IndiaKarnataka07-10-2021
NIDAVELLIR TECH STUDIO PRIVATE LIMITEDU72900KA2021PTC152807IndiaKarnataka07-10-2021
TECHLYTICAL PRIVATE LIMITEDU72900KA2021PTC152828IndiaKarnataka07-10-2021
INTECREATE FACTORY PRIVATE LIMITEDU36109KA2021PTC152810IndiaKarnataka07-10-2021
EFFILOGI PRIVATE LIMITEDU70109KA2021PTC152814IndiaKarnataka07-10-2021
BRUISE ENTERTAINMENT (OPC) PRIVATE LIMITEDU92490KA2021OPC152780IndiaKarnataka07-10-2021
SYCURIS LAB FOUNDATIONU80900KA2021NPL152824IndiaKarnataka07-10-2021
GNG GRANITES PRIVATE LIMITEDU14290KA2021PTC152830IndiaKarnataka07-10-2021
SARAGURU FARMERS PRODUCER COMPANY LIMITEDU01120KA2021PTC152802IndiaKarnataka07-10-2021
H2O CLOUD PRIVATE LIMITEDU41000KA2021PTC152789IndiaKarnataka07-10-2021
BLACKBOARD FOOD VENTURES PRIVATE LIMITEDU15134KA2021PTC152783IndiaKarnataka07-10-2021
VINRA FARMS AND AGROTECH PRIVATE LIMITEDU01120KA2021PTC152833IndiaKarnataka07-10-2021
RUDRAMUNESHWAR FARMERS PRODUCER COMPANY LIMITEDU01409KA2021PTC152822IndiaKarnataka07-10-2021
OCEAN SOL TOURS AND TRAVELS (OPC) PRIVATE LIMITEDU63040KA2021OPC152826IndiaKarnataka07-10-2021
SRI HANUMAN AGRI COTTONS PRIVATE LIMITEDU01100KA2021PTC152832IndiaKarnataka07-10-2021
YOUYOG HEALTH AND HUMAN WELLBEING PRIVATE LIMITEDU85100KA2021PTC152820IndiaKarnataka07-10-2021
GENSOF PRIVATE LIMITEDU72200KA2021PTC152793IndiaKarnataka07-10-2021
QUNIQ TECHNOLOGIES PRIVATE LIMITEDU72200KA2021PTC152818IndiaKarnataka07-10-2021
RETAIL PULSE LABS PRIVATE LIMITEDU72200KA2021PTC152819IndiaKarnataka07-10-2021
V4VVENTURES PRIVATE LIMITEDU52100KA2021PTC152798IndiaKarnataka07-10-2021
COUNCIL FOR AIR ENERGY AND AGRICULTUREU85300KA2021NPL152870IndiaKarnataka08-10-2021
INTER MERCA INFRA-LOGISTICS PRIVATE LIMITEDU45500KA2021PTC152859IndiaKarnataka08-10-2021
I CAP INDIA INVESTMENTS PRIVATE LIMITEDU67190KA2021PTC152850IndiaKarnataka08-10-2021
TRUVINE BOOKS (OPC) PRIVATE LIMITEDU52599KA2021OPC152886IndiaKarnataka08-10-2021
C-RISH PHARMA INTERNATIONAL PRIVATE LIMITEDU24230KA2021PTC152856IndiaKarnataka08-10-2021
APPLICATION PERFECTION INDIA PRIVATE LIMITEDU72900KA2021FTC152846IndiaKarnataka08-10-2021
STUDENTS NETWORK PRIVATE LIMITEDU80100KA2021PTC152834IndiaKarnataka08-10-2021
OBLIVIOUS SOFTWARE INDIA PRIVATE LIMITEDU72900KA2021FTC152880IndiaKarnataka08-10-2021
SMARTATS (OPC) PRIVATE LIMITEDU72900KA2021OPC152840IndiaKarnataka08-10-2021
KOUZINA SOLUTIONS AND SERVICES PRIVATE LIMITEDU72900KA2021PTC152835IndiaKarnataka08-10-2021
SPACE CHASE PRIVATE LIMITEDU35999KA2021PTC152852IndiaKarnataka08-10-2021
ENERDATICS SERVICES PRIVATE LIMITEDU72900KA2021PTC152848IndiaKarnataka08-10-2021
UNIQUESOL CONSULTANTS INDIA PRIVATE LIMITEDU72900KA2021PTC152854IndiaKarnataka08-10-2021
PATIENT FIRST HEALTHTECH PRIVATE LIMITEDU72900KA2021PTC152868IndiaKarnataka08-10-2021
GVRAI TECHNOLOGIES PRIVATE LIMITEDU72900KA2021PTC152874IndiaKarnataka08-10-2021
MEHTA INFOTECH SERVICES INDIA PRIVATE LIMITEDU72900KA2021PTC152878IndiaKarnataka08-10-2021
HOMESOURCE BUSINESS SOLUTIONS PRIVATE LIMITEDU70109KA2021PTC152866IndiaKarnataka08-10-2021
CAPI TRAINING (OPC) PRIVATE LIMITEDU80301KA2021OPC152885IndiaKarnataka08-10-2021
PRICINGKEY INNOVATION PRIVATE LIMITEDU70109KA2021PTC152876IndiaKarnataka08-10-2021
WELABS PRIVATE LIMITEDU72900KA2021PTC152882IndiaKarnataka08-10-2021
AMKA A2Z TECHNOLOGY PRIVATE LIMITEDU72900KA2021PTC152892IndiaKarnataka08-10-2021
STEMONSTERS EDUCATION PRIVATE LIMITEDU80302KA2021PTC152847IndiaKarnataka08-10-2021
CAKE PRINCE (OPC) PRIVATE LIMITEDU51909KA2021OPC152862IndiaKarnataka08-10-2021
PREMIER TOOLS AND TACKLES PRIVATE LIMITEDU51909KA2021PTC152864IndiaKarnataka08-10-2021
UNLTD SERVICES (OPC) PRIVATE LIMITEDU74999KA2021OPC152855IndiaKarnataka08-10-2021
EPICALYX LABS PRIVATE LIMITEDU74999KA2021PTC152836IndiaKarnataka08-10-2021
M STOP LOSS FINANCIAL SERVICES PRIVATE LIMITEDU74999KA2021PTC152838IndiaKarnataka08-10-2021
KUMAR ELECTRICALS & POWER INFRA PRIVATE LIMITEDU74999KA2021PTC152861IndiaKarnataka08-10-2021
ON CALL DRIVERS 4 U PRIVATE LIMITEDU63030KA2021PTC152890IndiaKarnataka08-10-2021
VOXSON PRIVATE LIMITEDU74999KA2021PTC152865IndiaKarnataka08-10-2021
NOVA MOULDS PRIVATE LIMITEDU25209KA2021PTC152881IndiaKarnataka08-10-2021
SANKYA ASSOCIATES PRIVATE LIMITEDU74999KA2021PTC152875IndiaKarnataka08-10-2021
FIRST CHOICE GROCERY PRIVATE LIMITEDU52209KA2021PTC152858IndiaKarnataka08-10-2021
SUGREEVA BENEFIT FUND NIDHI LIMITEDU65990KA2021PLN152844IndiaKarnataka08-10-2021
CONCEPT FRESH PRIVATE LIMITEDU52209KA2021PTC152863IndiaKarnataka08-10-2021
SUNNIVA SPORTING VENTURES PRIVATE LIMITEDU18100KA2021PTC152871IndiaKarnataka08-10-2021
OPEROSE INDUSTRIES PRIVATE LIMITEDU29256KA2021PTC152887IndiaKarnataka08-10-2021
NLAMNETIC PRIVATE LIMITEDU29309KA2021PTC152867IndiaKarnataka08-10-2021
MSNK CLOTHING PRIVATE LIMITEDU18209KA2021PTC152842IndiaKarnataka08-10-2021
FURNMART VENTURES PRIVATE LIMITEDU52399KA2021PTC152873IndiaKarnataka08-10-2021
ITECHSCAPE PRIVATE LIMITEDU31909KA2021PTC152849IndiaKarnataka08-10-2021
OO WOMANIYA FOUNDATIONU85300KA2021NPL152845IndiaKarnataka08-10-2021
GLOWING SUN FOOD PRODUCTS PRIVATE LIMITEDU15549KA2021PTC152853IndiaKarnataka08-10-2021
LUMEN LIFE CARE SOLUTIONS PRIVATE LIMITEDU85110KA2021PTC152884IndiaKarnataka08-10-2021
BTN INFRATEL (OPC) PRIVATE LIMITEDU45309KA2021OPC152843IndiaKarnataka08-10-2021
AGTECH WAVEZ (OPC) PRIVATE LIMITEDU01100KA2021OPC152869IndiaKarnataka08-10-2021
MMS FARMS PRIVATE LIMITEDU01100KA2021PTC152839IndiaKarnataka08-10-2021
PUNYA BHOOMI ORGANIC FARMERS PRODUCER COMPANY LIMITEDU01100KA2021PTC152857IndiaKarnataka08-10-2021
B G SALAVATIGI AND SONS PRIVATE LIMITEDU52100KA2021PTC152877IndiaKarnataka08-10-2021
RONIN ENTERTAINMENT (OPC) PRIVATE LIMITEDU92130KA2021OPC152872IndiaKarnataka08-10-2021
INVESTINOS PRIVATE LIMITEDU74999KA2021PTC152889IndiaKarnataka08-10-2021
BUYWIN ADVERTISING PRIVATE LIMITEDU74999KA2021PTC152891IndiaKarnataka08-10-2021
MICHEZO SPORTS CENTERS PRIVATE LIMITEDU92410KA2021PTC152883IndiaKarnataka08-10-2021
A AND L GOLF PRIVATE LIMITEDU92410KA2021PTC152888IndiaKarnataka08-10-2021
MSPATEL PRESTIGE INNOVATIONS PRIVATE LIMITEDU26999KA2021PTC152860IndiaKarnataka08-10-2021
SKAT RIGEL CONSTRUCTIONS PRIVATE LIMITEDU45200KA2021PTC152851IndiaKarnataka08-10-2021
JASK TECHNOLOGIES PRIVATE LIMITEDU72200KA2021PTC152879IndiaKarnataka08-10-2021
MERCUTRADE PRIVATE LIMITEDU15490KA2021PTC152837IndiaKarnataka08-10-2021
GOPALAKA FARMER PRODUCER COMPANY LIMITEDU01400KA2021PTC152841IndiaKarnataka08-10-2021
DAGGER TECHNOLOGY DEVELOPMENT PRIVATE LIMITEDU72502KA2021PTC152907IndiaKarnataka09-10-2021
DRUSHTI DHATRI INDIA PRIVATE LIMITEDU45201KA2021PTC152897IndiaKarnataka09-10-2021
JM SEEDZ INDIA PRIVATE LIMITEDU51909KA2021PTC152915IndiaKarnataka09-10-2021
PKGS SPIRITS PRIVATE LIMITEDU51909KA2021PTC152919IndiaKarnataka09-10-2021
KBN GLOBAL INFRA PRIVATE LIMITEDU45203KA2021PTC152920IndiaKarnataka09-10-2021
GLENARM PRIVATE LIMITEDU26990KA2021PTC152894IndiaKarnataka09-10-2021
VIRTUAL ANT PRIVATE LIMITEDU72900KA2021PTC152900IndiaKarnataka09-10-2021
IWO BULLS PRIVATE LIMITEDU67100KA2021PTC152896IndiaKarnataka09-10-2021
STARKIT TECHNOLOGIES PRIVATE LIMITEDU72900KA2021PTC152904IndiaKarnataka09-10-2021
METAFIVE TECH PRIVATE LIMITEDU72900KA2021PTC152908IndiaKarnataka09-10-2021
PURENT INDIA GLOBAL PRIVATE LIMITEDU29306KA2021PTC152922IndiaKarnataka09-10-2021
EVALENTON DESIGN CONCEPT LAB TECHNOLOGIES PRIVATE LIMITEDU72900KA2021PTC152911IndiaKarnataka09-10-2021
DEARELE MANAGEMENT CONSULTANTS PRIVATE LIMITEDU72900KA2021PTC152912IndiaKarnataka09-10-2021
ARONLABZ TECH PRIVATE LIMITEDU33309KA2021PTC152916IndiaKarnataka09-10-2021
VANS AVENUES PRIVATE LIMITEDU45400KA2021PTC152902IndiaKarnataka09-10-2021
CLEARSKIES LEARNING & RESEARCH PRIVATE LIMITEDU74999KA2021PTC152893IndiaKarnataka09-10-2021
JIGNASA BUSINESS ADVISORS PRIVATE LIMITEDU74999KA2021PTC152898IndiaKarnataka09-10-2021
MEDIARCK PHARMA TRAINING SOLUTIONS PRIVATE LIMITEDU80900KA2021PTC152905IndiaKarnataka09-10-2021
SIMSY VENTURES PRIVATE LIMITEDU74999KA2021PTC152899IndiaKarnataka09-10-2021
CLIFFDESIGN PRIVATE LIMITEDU36990KA2021PTC152901IndiaKarnataka09-10-2021
RRA-ROZANA READY ASSIST PRIVATE LIMITEDU50500KA2021PTC152921IndiaKarnataka09-10-2021
LEGAL STREET TECHNOLOGIES PRIVATE LIMITEDU74999KA2021PTC152903IndiaKarnataka09-10-2021
BIGCIRCLES DIGITAL SOLUTIONS PRIVATE LIMITEDU72200KA2021PTC152909IndiaKarnataka09-10-2021
SKSPRO MANPOWER PRIVATE LIMITEDU74999KA2021PTC152906IndiaKarnataka09-10-2021
KROP ARTIFICIAL INTELLIGENCE PRIVATE LIMITEDU72200KA2021PTC152918IndiaKarnataka09-10-2021
TIJARAH IT CONSULTING PRIVATE LIMITEDU74999KA2021PTC152913IndiaKarnataka09-10-2021
EVERGLOBE INDIA PRIVATE LIMITEDU51900KA2021PTC152895IndiaKarnataka09-10-2021
KLP CONSULTANCY SERVICES PRIVATE LIMITEDU74999KA2021PTC152914IndiaKarnataka09-10-2021
VIBHINNA FITNESS CLUB PRIVATE LIMITEDU92410KA2021PTC152910IndiaKarnataka09-10-2021
ENSCIENTIFIC TESTINGS & CERTIFICATIONS PRIVATE LIMITEDU74999KA2021PTC152923IndiaKarnataka09-10-2021
KATRA VIRAT PRIVATE LIMITEDU15490KA2021PTC152917IndiaKarnataka09-10-2021
NAVA VISION GLOBAL EDUCATION PRIVATE LIMITEDU80301KA2021PTC152961IndiaKarnataka11-10-2021
GKS DREAM INFRA PRIVATE LIMITEDU45201KA2021PTC152928IndiaKarnataka11-10-2021
SANGAMESH INFRASTRUCTURE INDIA PRIVATE LIMITEDU45201KA2021PTC152944IndiaKarnataka11-10-2021
LARREFER INNOVATIONS PRIVATE LIMITEDU74900KA2021PTC152954IndiaKarnataka11-10-2021
COCO DESIGNS (OPC) PRIVATE LIMITEDU72900KA2021OPC152963IndiaKarnataka11-10-2021
DREAM VALUE REALTORS PRIVATE LIMITEDU70109KA2021PTC152943IndiaKarnataka11-10-2021
CONNECTBAZAR PRIVATE LIMITEDU72900KA2021PTC152933IndiaKarnataka11-10-2021
ZEACORP HR TECH PRIVATE LIMITEDU74910KA2021PTC152955IndiaKarnataka11-10-2021
TARGETFOCUS TECHSERVICES PRIVATE LIMITEDU72900KA2021PTC152956IndiaKarnataka11-10-2021
TNN ACADEMY FORUMU80210KA2021NPL152925IndiaKarnataka11-10-2021
FLUXIT PRIVATE LIMITEDU72900KA2021PTC152962IndiaKarnataka11-10-2021
ANNBRI HEALTHCARE PRIVATE LIMITEDU72900KA2021PTC152965IndiaKarnataka11-10-2021
KANADA PROJECTS (OPC) PRIVATE LIMITEDU24299KA2021OPC152973IndiaKarnataka11-10-2021
EDURIGHT IMMIGRATION & EDUCATION SERVICES (OPC) PRIVATE LIMITEDU80301KA2021OPC152945IndiaKarnataka11-10-2021
VERITA AGROFOODS PRIVATE LIMITEDU15120KA2021PTC152967IndiaKarnataka11-10-2021
NEWCAST DIE CASTING PRIVATE LIMITEDU27300KA2021PTC152951IndiaKarnataka11-10-2021
ACDUS INDIA PRIVATE LIMITEDU15134KA2021PTC152940IndiaKarnataka11-10-2021
AMHARA FABRICATION PRIVATE LIMITEDU28900KA2021PTC152969IndiaKarnataka11-10-2021
WILD TURMERIC NATURALS (OPC) PRIVATE LIMITEDU52310KA2021OPC152950IndiaKarnataka11-10-2021
SUKILY PRIVATE LIMITEDU72200KA2021PTC152974IndiaKarnataka11-10-2021
URBANTASTY SPICES PRIVATE LIMITEDU01100KA2021PTC152959IndiaKarnataka11-10-2021
NIRAN ELEVATORS AND FACILITY MANAGEMENT PRIVATE LIMITEDU29300KA2021PTC152934IndiaKarnataka11-10-2021
MIFM RESOURCES PRIVATE LIMITEDU74999KA2021PTC152924IndiaKarnataka11-10-2021
PRERAKV ELECTRICALS (OPC) PRIVATE LIMITEDU31900KA2021OPC152964IndiaKarnataka11-10-2021
ISCAH FOUNDATIONU85100KA2021NPL152941IndiaKarnataka11-10-2021
NAFFA SERVICES PRIVATE LIMITEDU74999KA2021PTC152938IndiaKarnataka11-10-2021
VELMALAR HOLDINGS PRIVATE LIMITEDU65990KA2021PTC152937IndiaKarnataka11-10-2021
VIRTUOUS ACCOUNTING SOLUTIONS PRIVATE LIMITEDU74999KA2021PTC152968IndiaKarnataka11-10-2021
SREEHARITHA HEALTHCARE PRIVATE LIMITEDU85100KA2021PTC152952IndiaKarnataka11-10-2021
ORBFOCUS HEALTHCARE SERVICES PRIVATE LIMITEDU85100KA2021PTC152966IndiaKarnataka11-10-2021
STANZEN AUTOMOTIVE PRIVATE LIMITEDU34300KA2021PTC152926IndiaKarnataka11-10-2021
VALENT ELECTRIC PRIVATE LIMITEDU34300KA2021PTC152957IndiaKarnataka11-10-2021
PERIFERIE PRIVATE LIMITEDU36103KA2021PTC152942IndiaKarnataka11-10-2021
CURING ARMS HEALTH CARE SERVICES PRIVATELIMITEDU51507KA2021PTC152929IndiaKarnataka11-10-2021
ORBIFIN CHITS PRIVATE LIMITEDU65999KA2021PTC152953IndiaKarnataka11-10-2021
TATAWATI PHARMACEUTICALS PRIVATE LIMITEDU24230KA2021PTC152958IndiaKarnataka11-10-2021
VGO SOLAR PRIVATE LIMITEDU40106KA2021PTC152971IndiaKarnataka11-10-2021
RIDENT BIOSCIENCES PRIVATE LIMITEDU73200KA2021PTC152972IndiaKarnataka11-10-2021
FIN GHAR SALES AND SERVICE PRIVATE LIMITEDU67190KA2021PTC152970IndiaKarnataka11-10-2021
SWOOSH CLEANCARE (OPC) PRIVATE LIMITEDU51909KA2021OPC152927IndiaKarnataka11-10-2021
DESIGN2SIGNOFF SEMICONDUCTOR PRIVATE LIMITEDU74140KA2021PTC152960IndiaKarnataka11-10-2021
BRIGHT BITUMEN PRIVATE LIMITEDU51909KA2021PTC152935IndiaKarnataka11-10-2021
AARYA PAINTS PRIVATE LIMITEDU24290KA2021PTC152946IndiaKarnataka11-10-2021
LOGIFAST LOGISTICS PRIVATE LIMITEDU60231KA2021PTC152949IndiaKarnataka11-10-2021
ABAM COUNCILU85300KA2021NPL152939IndiaKarnataka11-10-2021
MESSTRONIK INDIA PRIVATE LIMITEDU29190KA2021PTC152978IndiaKarnataka12-10-2021
LIFETREE COIR FACTORY PRIVATE LIMITEDU17299KA2021PTC152988IndiaKarnataka12-10-2021
SUNSUPREM SOLAR POWER PROJECT (OPC) PRIVATE LIMITEDU29309KA2021OPC153020IndiaKarnataka12-10-2021
SRI SAI COLLECTIONS PRIVATE LIMITEDU18100KA2021PTC153023IndiaKarnataka12-10-2021
TAILWIND FASHION PRIVATE LIMITEDU18101KA2021PTC152985IndiaKarnataka12-10-2021
BULLETER VENTURES PRIVATE LIMITEDU18109KA2021PTC153013IndiaKarnataka12-10-2021
WE VOW FOUNDATIONU73200KA2021NPL153005IndiaKarnataka12-10-2021
SAMVRIDHI SHIGHRA PRIVATE LIMITEDU72900KA2021PTC152982IndiaKarnataka12-10-2021
YOUNG FOLKS PRIVATE LIMITEDU72900KA2021PTC152987IndiaKarnataka12-10-2021
RJ CHITS CLUB PRIVATE LIMITEDU65992KA2021PTC153001IndiaKarnataka12-10-2021
JDL BUSINESS SOLUTIONS PRIVATE LIMITEDU72900KA2021PTC152992IndiaKarnataka12-10-2021
AMARANTH MEDICAL ANALYTICS PRIVATE LIMITEDU72900KA2021PTC153010IndiaKarnataka12-10-2021
ARUN BIM SERVICES PRIVATE LIMITEDU45309KA2021PTC152998IndiaKarnataka12-10-2021
CK EXPERT SHACK PRIVATE LIMITEDU72900KA2021PTC153015IndiaKarnataka12-10-2021
SKYTRIBE TECHNOLOGIES PRIVATE LIMITEDU31909KA2021PTC152981IndiaKarnataka12-10-2021
SWAEZER CORPORATES PRIVATE LIMITEDU74140KA2021PTC152983IndiaKarnataka12-10-2021
NEISTO PRIVATE LIMITEDU72900KA2021PTC153017IndiaKarnataka12-10-2021
WEINSURE GLOBAL INSURANCE BROKING PRIVATE LIMITEDU66000KA2021PTC153014IndiaKarnataka12-10-2021
FNF SWINGS INDIA PRIVATE LIMITEDU74200KA2021PTC153018IndiaKarnataka12-10-2021
RAVIMAX ENGINEERS PRIVATE LIMITEDU34100KA2021PTC153021IndiaKarnataka12-10-2021
RADIUSAI PRIVATE LIMITEDU74220KA2021PTC153026IndiaKarnataka12-10-2021
AMITHA LIFE SCIENCE SOLUTIONS INDIA (OPC) PRIVATE LIMITEDU24230KA2021OPC152977IndiaKarnataka12-10-2021
JAYALAKSHMI ECO MOTORS PRIVATE LIMITEDU50400KA2021PTC152997IndiaKarnataka12-10-2021
VAIBHAV VEDA GREEN VENTURES PRIVATE LIMITEDU70109KA2021PTC153008IndiaKarnataka12-10-2021
TRESH PHARMACEUTICALS PRIVATE LIMITEDU24239KA2021PTC152984IndiaKarnataka12-10-2021
DVITVA MANAGEMENT PRIVATE LIMITEDU70109KA2021PTC153012IndiaKarnataka12-10-2021
CULTURECAUSE MARKETING PRIVATE LIMITEDU52609KA2021PTC152989IndiaKarnataka12-10-2021
PAVANATANAYA VENTURES PRIVATE LIMITEDU55101KA2021PTC152995IndiaKarnataka12-10-2021
BIOECOLOGY AND AGRO INDUSTRIES PRIVATE LIMITEDU37200KA2021PTC153003IndiaKarnataka12-10-2021
AKNOWLEDGE EDUTECH (OPC) PRIVATE LIMITEDU80301KA2021OPC153019IndiaKarnataka12-10-2021
NIKKIBUILD EDTECH PRIVATE LIMITEDU80301KA2021PTC153000IndiaKarnataka12-10-2021
POURANIK POLYMERS PRIVATE LIMITEDU51909KA2021PTC152979IndiaKarnataka12-10-2021
MALE MAHADESHWARA GRANITES PRIVATE LIMITEDU51909KA2021PTC152999IndiaKarnataka12-10-2021
SMART VEINTE GLOBAL SOLUTIONS PRIVATE LIMITEDU74999KA2021PTC152975IndiaKarnataka12-10-2021
APPSAGE INFOSYSTEM PRIVATE LIMITEDU74999KA2021PTC152976IndiaKarnataka12-10-2021
WHITE TEAK VENTURES PRIVATE LIMITEDU15400KA2021PTC152991IndiaKarnataka12-10-2021
SHRI MALLANA AGRO PRODUCER COMPANY LIMITEDU01110KA2021PTC152986IndiaKarnataka12-10-2021
BIOSOME NUTRACEUTICAL PRIVATE LIMITEDU15400KA2021PTC153002IndiaKarnataka12-10-2021
HARISH PARCELS PRIVATE LIMITEDU63030KA2021PTC152996IndiaKarnataka12-10-2021
MANOVIR SECURITY SERVICES INDIA PRIVATE LIMITEDU74999KA2021PTC152980IndiaKarnataka12-10-2021
SEVEN BUCKS EDUCATION PRIVATE LIMITEDU80900KA2021PTC153007IndiaKarnataka12-10-2021
PULSE TRIP PRIVATE LIMITEDU63030KA2021PTC153004IndiaKarnataka12-10-2021
HASHFLYERS PRIVATE LIMITEDU74999KA2021PTC152990IndiaKarnataka12-10-2021
SAATVIK SOLUTIONS PRIVATE LIMITEDU74999KA2021PTC152993IndiaKarnataka12-10-2021
RELOWORLD MOVING AND STORAGE SOLUTIONS PRIVATE LIMITEDU63030KA2021PTC153006IndiaKarnataka12-10-2021
EXIMIOUS MINERALS INDIA PRIVATE LIMITEDU27200KA2021PTC153011IndiaKarnataka12-10-2021
VFE INDIA PRIVATE LIMITEDU74999KA2021PTC153009IndiaKarnataka12-10-2021
BRAND LEVITATE PRIVATE LIMITEDU74999KA2021PTC153016IndiaKarnataka12-10-2021
TARIS GLOBAL TRADE AND CONSULTING PRIVATE LIMITEDU74999KA2021PTC153022IndiaKarnataka12-10-2021
EDUVY TECHNOLOGIES PRIVATE LIMITEDU80902KA2021PTC153025IndiaKarnataka12-10-2021
DZNNEXT PRIVATE LIMITEDU74999KA2021PTC153024IndiaKarnataka12-10-2021
CLOSE TO BUY PRIVATE LIMITEDU72300KA2021PTC152994IndiaKarnataka12-10-2021
MERUHI MOBILITY PRIVATE LIMITEDU63030KA2021PTC153042IndiaKarnataka13-10-2021
ALGACLEAN INDIA PRIVATE LIMITEDU24296KA2021FTC153087IndiaKarnataka13-10-2021
PANTH COMMUNITIES & TECHNOLOGIES PRIVATELIMITEDU72500KA2021PTC153033IndiaKarnataka13-10-2021
AASARE HUMANITARIAN FOUNDATIONU85300KA2021NPL153044IndiaKarnataka13-10-2021
HAPPYMONK AI LABS PRIVATE LIMITEDU72500KA2021PTC153037IndiaKarnataka13-10-2021
CURE AND CARE WELLNESS PRIVATE LIMITEDU85300KA2021PTC153059IndiaKarnataka13-10-2021
BAHUMUKHA TECHNOLOGIES INDIA PRIVATE LIMITEDU45200KA2021PTC153032IndiaKarnataka13-10-2021
IRON KETTLE PRIVATE LIMITEDU15549KA2021PTC153029IndiaKarnataka13-10-2021
DESIGN CHANNEL SERVICES PRIVATE LIMITEDU74140KA2021PTC153034IndiaKarnataka13-10-2021
KODIKRUPA INFRA PROJECTS PRIVATE LIMITEDU45202KA2021PTC153049IndiaKarnataka13-10-2021
ANUPALA BUILDERS AND DEVELOPERS PRIVATE LIMITEDU45202KA2021PTC153054IndiaKarnataka13-10-2021
MGI DISTRIBUTION PRIVATE LIMITEDU51909KA2021PTC153039IndiaKarnataka13-10-2021
SKETCH VISUAL INFRA SOLUTIONS PRIVATE LIMITEDU45203KA2021PTC153027IndiaKarnataka13-10-2021
D K BROTHERS INTERNATIONAL SOLUTIONS PRIVATE LIMITEDU51909KA2021PTC153060IndiaKarnataka13-10-2021
LAKSHMITHA COMMODITIES AND ESSENTIALS PRIVATE LIMITEDU51909KA2021PTC153086IndiaKarnataka13-10-2021
TRENDANDSILHOUETTE PRIVTE LIMITEDU18202KA2021PTC153088IndiaKarnataka13-10-2021
VIDHMAHI CONSTRUCTION MATERIALS PRIVATE LIMITEDU26990KA2021PTC153035IndiaKarnataka13-10-2021
ABHEE VENTURES PRIVATE LIMITEDU45203KA2021PTC153091IndiaKarnataka13-10-2021
SFINTELLI SOLUTIONS (OPC) PRIVATE LIMITEDU72900KA2021OPC153036IndiaKarnataka13-10-2021
AIOFT VENTURES LIMITEDU72900KA2021PLC153028IndiaKarnataka13-10-2021
TUOTR EDTECH PRIVATE LIMITEDU72900KA2021PTC153058IndiaKarnataka13-10-2021
BELLSCURVE SERVICES PRIVATE LIMITEDU72900KA2021PTC153063IndiaKarnataka13-10-2021
RELIABLE INTEGRATED MANAGEMENT AND BUSINESS SOLUTIONS PRIVATE LIMITEDU72900KA2021PTC153065IndiaKarnataka13-10-2021
ON D WAY SOLUTIONS PRIVATE LIMITEDU72900KA2021PTC153068IndiaKarnataka13-10-2021
HEDGEROCK FINTECH PRIVATE LIMITEDU72900KA2021PTC153078IndiaKarnataka13-10-2021
ALL COMMERCE TECHNOLOGIES PRIVATE LIMITEDU72900KA2021PTC153082IndiaKarnataka13-10-2021
OMKARA CHITS PRIVATE LIMITEDU65999KA2021PTC153075IndiaKarnataka13-10-2021
NATIVEBASE PRIVATE LIMITEDU72900KA2021PTC153084IndiaKarnataka13-10-2021
KALLAKUNTA DEVELOPERS PRIVATE LIMITEDU45209KA2021PTC153077IndiaKarnataka13-10-2021
PDRHIREMATH DIGITAL MEDIA PRIVATE LIMITEDU22300KA2021PTC153031IndiaKarnataka13-10-2021
SHEE TALES ENTERTAINMENT PRIVATE LIMITEDU92490KA2021PTC153043IndiaKarnataka13-10-2021
SHRI SAI SANNIDI BIOFUELS PRIVATE LIMITEDU23200KA2021PTC153047IndiaKarnataka13-10-2021
ABOVE & BEYOND SPORTS ORGANISATION PRIVATE LIMITEDU92490KA2021PTC153090IndiaKarnataka13-10-2021
HAPPY INDIA WELLNESS PRIVATE LIMITEDU80302KA2021PTC153076IndiaKarnataka13-10-2021
GLORIOUS INTERNATIONAL NURSING RESEARCH AND ACADEMIC FOUNDATIONU85100KA2021NPL153046IndiaKarnataka13-10-2021
WLFH PRIVATE LIMITEDU15209KA2021PTC153052IndiaKarnataka13-10-2021
LIVELIHOOD BRIGADE ASSOCIATIONU85100KA2021NPL153072IndiaKarnataka13-10-2021
RESOLVE HEALTHCARE PRIVATE LIMITEDU85100KA2021PTC153061IndiaKarnataka13-10-2021
VOSKHOD ENGINEERING CONSULTANCY SERVICESPRIVATE LIMITEDU45500KA2021PTC153067IndiaKarnataka13-10-2021
HAPPINESS DHABA FOODS PRIVATE LIMITEDU55101KA2021PTC153057IndiaKarnataka13-10-2021
SWEET INDULGENCE PRIVATE LIMITEDU15400KA2021PTC153040IndiaKarnataka13-10-2021
ANR PRESTIGE BEVERAGES PRIVATE LIMITEDU15400KA2021PTC153048IndiaKarnataka13-10-2021
GHARSEY FOODS PRIVATE LIMITEDU15400KA2021PTC153073IndiaKarnataka13-10-2021
SERES INFORMATION TECHNOLOGIE PRIVATE LIMITEDU72200KA2021PTC153045IndiaKarnataka13-10-2021
MARTNMEAT PRIVATE LIMITEDU15400KA2021PTC153079IndiaKarnataka13-10-2021
CONFUSION MATRIX PRIVATE LIMITEDU72200KA2021PTC153066IndiaKarnataka13-10-2021
NIU FOODS AND BEVERAGES PRIVATE LIMITEDU55202KA2021PTC153089IndiaKarnataka13-10-2021
JESKI GLOBAL PRIVATE LIMITEDU15490KA2021PTC153030IndiaKarnataka13-10-2021
IUVA LABS PRIVATE LIMITEDU15490KA2021PTC153055IndiaKarnataka13-10-2021
PYD REPAIR SERVICES PRIVATE LIMITEDU52335KA2021PTC153056IndiaKarnataka13-10-2021
HOMZELITE INTERIORS AND CONSTRUCTIONS PRIVATE LIMITEDU45309KA2021PTC153081IndiaKarnataka13-10-2021
NEWTRACE PRIVATE LIMITEDU31900KA2021PTC153080IndiaKarnataka13-10-2021
V-STRUCT SERVICES (OPC) PRIVATE LIMITEDU74999KA2021OPC153050IndiaKarnataka13-10-2021
GEOELITE BIM SOLUTIONS PRIVATE LIMITEDU74999KA2021PTC153064IndiaKarnataka13-10-2021
GMT WORKFORCE PRIVATE LIMITEDU74999KA2021PTC153069IndiaKarnataka13-10-2021
MEGHA POLYMERS PRIVATE LIMITEDU74999KA2021PTC153070IndiaKarnataka13-10-2021
BOYAPATI CONSULTANCY SERVICES PRIVATE LIMITEDU74999KA2021PTC153071IndiaKarnataka13-10-2021
BETTERPLACE HR SOLUTIONS PRIVATE LIMITEDU74999KA2021PTC153074IndiaKarnataka13-10-2021
SHOPIWAY GLOBAL PRIVATE LIMITEDU52609KA2021PTC153038IndiaKarnataka13-10-2021
TERUCON INDIA PRIVATE LIMITEDU45400KA2021PTC153053IndiaKarnataka13-10-2021
TZN INFRASTRUCTURE PRIVATE LIMITEDU45400KA2021PTC153085IndiaKarnataka13-10-2021
KUKANOORU DHARANI MILLETS PRODUCER COMPANY LIMITEDU01110KA2021PTC153083IndiaKarnataka13-10-2021
OXIGREEN HEALTHCARE PRIVATE LIMITEDU33119KA2021PTC153041IndiaKarnataka13-10-2021
PAMPADY MARINE CONTRACTS AND SHIPPING PRIVATE LIMITEDU51909KA2021PTC153122IndiaKarnataka14-10-2021
SYTY AGRO PRIVATE LIMITEDU51909KA2021PTC153141IndiaKarnataka14-10-2021
SBY STAR PRIVATE LIMITEDU51909KA2021PTC153153IndiaKarnataka14-10-2021
OFFBEAT CULTURE PRIVATE LIMITEDU74999KA2021PTC153095IndiaKarnataka14-10-2021
OJAS CASHEW PRIVATE LIMITEDU15493KA2021PTC153098IndiaKarnataka14-10-2021
RADIANTRX PRIVATE LIMITEDU74999KA2021PTC153097IndiaKarnataka14-10-2021
ARCYON INTERNATIONAL INSTITUTE OF MEDICAL SCIENCE AND TECHNOLOGY COUNCILU80903KA2021NPL153170IndiaKarnataka14-10-2021
DIGIMIND INNOVATIONS INDIA PRIVATE LIMITEDU74999KA2021PTC153116IndiaKarnataka14-10-2021
MEGHATECH SOLUTIONS PRIVATE LIMITEDU74999KA2021PTC153120IndiaKarnataka14-10-2021
91080 WORKSPACE PRIVATE LIMITEDU74999KA2021PTC153121IndiaKarnataka14-10-2021
DALSTOC MANAGEMENT PRIVATE LIMITEDU74999KA2021PTC153143IndiaKarnataka14-10-2021
ENROLL CAREERS PRIVATE LIMITEDU74999KA2021PTC153147IndiaKarnataka14-10-2021
SQUADDLY SOLUTIONS PRIVATE LIMITEDU74999KA2021PTC153156IndiaKarnataka14-10-2021
SPORTIO VENTURES PRIVATE LIMITEDU92490KA2021PTC153118IndiaKarnataka14-10-2021
ABHAY AUTOMOTIVE PRIVATE LIMITEDU70109KA2021PTC153101IndiaKarnataka14-10-2021
NISARGPRIYA BIOFUELS MUDHOL PRIVATE LIMITEDU11100KA2021PTC153174IndiaKarnataka14-10-2021
ALLIANCE ELITE HOMES PRIVATE LIMITEDU70109KA2021PTC153175IndiaKarnataka14-10-2021
POLICYSOUK PRIVATE LIMITEDU93090KA2021PTC153109IndiaKarnataka14-10-2021
DL GLOBAL MANPOWER SERVICES PRIVATE LIMITEDU93090KA2021PTC153136IndiaKarnataka14-10-2021
DESTWIN VENTURES (OPC) PRIVATE LIMITEDU51909KA2021OPC153126IndiaKarnataka14-10-2021
INDICBAZAAR PRIVATE LIMITEDU51909KA2021PTC153112IndiaKarnataka14-10-2021
IMEXME PRIVATE LIMITEDU51909KA2021PTC153114IndiaKarnataka14-10-2021
SINCHANA SEEDS PRIVATE LIMITEDU01409KA2021PTC153096IndiaKarnataka14-10-2021
KOU-CHAN DIGI MERCHANTS PRIVATE LIMITEDU74999KA2021PTC153158IndiaKarnataka14-10-2021
MUSAFIR TOURISM INTERNATIONAL PRIVATE LIMITEDU63030KA2021PTC153159IndiaKarnataka14-10-2021
NONA MAXIMUS PROJECTS PRIVATE LIMITEDU45203KA2021PTC153127IndiaKarnataka14-10-2021
FINMO TECH INDIA PRIVATE LIMITEDU72200KA2021FTC153106IndiaKarnataka14-10-2021
KIRAVADI HORTICULTURE FARMERS PRODUCER COMPANY LIMITEDU01100KA2021PTC153093IndiaKarnataka14-10-2021
PLANTAUX INNOVATIONS PRIVATE LIMITEDU01100KA2021PTC153105IndiaKarnataka14-10-2021
SRMK ENTERPRISE PRIVATE LIMITEDU63031KA2021PTC153160IndiaKarnataka14-10-2021
MANA ESTATES PRIVATE LIMITEDU45209KA2021PTC153108IndiaKarnataka14-10-2021
SHIWIN EXPRESS LOGISTICS PRIVATE LIMITEDU63090KA2021PTC153131IndiaKarnataka14-10-2021
RITDM ENGINEERING (OPC) PRIVATE LIMITEDU29100KA2021OPC153163IndiaKarnataka14-10-2021
VRDDHI AGRITECH PRIVATE LIMITEDU29100KA2021PTC153125IndiaKarnataka14-10-2021
STOLZER PARKING SYSTEMS PRIVATE LIMITEDU29299KA2021PTC153145IndiaKarnataka14-10-2021
LEADBOLT PRIVATE LIMITEDU19200KA2021PTC153168IndiaKarnataka14-10-2021
TRUE SECURE AND PROTECTION PRIVATE LIMITEDU29305KA2021PTC153167IndiaKarnataka14-10-2021
PRO B MACHINES PRIVATE LIMITEDU29308KA2021PTC153128IndiaKarnataka14-10-2021
KEELAMBI MEDIA LAB PRIVATE LIMITEDU22190KA2021PTC153144IndiaKarnataka14-10-2021
MMBC FIRST MMM PRIVATE LIMITEDU74140KA2021PTC153094IndiaKarnataka14-10-2021
JATAYU NIDHI LIMITEDU65990KA2021PLN153092IndiaKarnataka14-10-2021
ECOBEACON RETAIL PRIVATE LIMITEDU52320KA2021PTC153165IndiaKarnataka14-10-2021
CONFIAR MEDIA PRODUCTION PRIVATE LIMITEDU22300KA2021PTC153119IndiaKarnataka14-10-2021
TALAGUND HOLDINGS PRIVATE LIMITEDU65990KA2021PTC153102IndiaKarnataka14-10-2021
UDAYARASHMI CHARITABLE FOUNDATIONU85300KA2021NPL153111IndiaKarnataka14-10-2021
ANKITA CLEAN FUELS PRIVATE LIMITEDU23200KA2021PTC153134IndiaKarnataka14-10-2021
TRUEGIVING FOUNDATIONU85300KA2021NPL153133IndiaKarnataka14-10-2021
RAGHUKULNATH FOUNDATIONU85300KA2021NPL153139IndiaKarnataka14-10-2021
SMB JEWELLERS (OPC) PRIVATE LIMITEDU52393KA2021OPC153157IndiaKarnataka14-10-2021
MEDIABRACKET (OPC) PRIVATE LIMITEDU72900KA2021OPC153107IndiaKarnataka14-10-2021
SPEEDLY PRIVATE LIMITEDU52399KA2021PTC153152IndiaKarnataka14-10-2021
CARE.FI TECHNOLOGICAL SOLUTIONS PRIVATE LIMITEDU72900KA2021PTC153099IndiaKarnataka14-10-2021
INDIANSHOPPRE PRIVATE LIMITEDU74990KA2021PTC153100IndiaKarnataka14-10-2021
DURVESH BUILDERS AND DEVELOPERS INDIA PRIVATE LIMITEDU45400KA2021PTC153138IndiaKarnataka14-10-2021
OPTIONABLES TECHNOLOGIES PRIVATE LIMITEDU72900KA2021PTC153104IndiaKarnataka14-10-2021
GAGNER SOLUTIONS & SERVICES PRIVATE LIMITEDU72900KA2021PTC153110IndiaKarnataka14-10-2021
ETECHNOBOT CONSULTING PRIVATE LIMITEDU72900KA2021PTC153113IndiaKarnataka14-10-2021
ASDF EVENT SOLUTIONS PRIVATE LIMITEDU74990KA2021PTC153135IndiaKarnataka14-10-2021
CRUDEON TECHNOLOGIES PRIVATE LIMITEDU72900KA2021PTC153115IndiaKarnataka14-10-2021
SARGENIX TECHNOLOGIES PRIVATE LIMITEDU72900KA2021PTC153123IndiaKarnataka14-10-2021
TRAVEL PLATEAU PRIVATE LIMITEDU34100KA2021PTC153169IndiaKarnataka14-10-2021
DITYA SOFTWARE SERVICES PRIVATE LIMITEDU72900KA2021PTC153129IndiaKarnataka14-10-2021
AUTO TARUN PRIVATE LIMITEDU34100KA2021PTC153172IndiaKarnataka14-10-2021
AUTOMOBILI TATTVA PRIVATE LIMITEDU34100KA2021PTC153173IndiaKarnataka14-10-2021
BROADWAY TECHNOLOGY INDIA PRIVATE LIMITEDU72900KA2021PTC153132IndiaKarnataka14-10-2021
UNIFEROUS PRIVATE LIMITEDU72900KA2021PTC153137IndiaKarnataka14-10-2021
WENERGY TECHNOLOGIES PRIVATE LIMITEDU72900KA2021PTC153140IndiaKarnataka14-10-2021
DAYVOM TECHNOLOGIES PRIVATE LIMITEDU72900KA2021PTC153142IndiaKarnataka14-10-2021
GLORIDEA TECHNOLOGY PRIVATE LIMITEDU72900KA2021PTC153146IndiaKarnataka14-10-2021
AR-RAHIM TECHNOLOGY PRIVATE LIMITEDU72900KA2021PTC153148IndiaKarnataka14-10-2021
MG PET FOOD WAREHOUSE INDIA PRIVATE LIMITEDU52609KA2021PTC153171IndiaKarnataka14-10-2021
ARTINI PRIVATE LIMITEDU72900KA2021PTC153151IndiaKarnataka14-10-2021
CONCEPTIAL TELEBUZZ PRIVATE LIMITEDU72900KA2021PTC153154IndiaKarnataka14-10-2021
JN SOFTWARE SOLUTIONS PRIVATE LIMITEDU72900KA2021PTC153155IndiaKarnataka14-10-2021
AKULA CYBERSEC SOLUTIONS PRIVATE LIMITEDU72900KA2021PTC153162IndiaKarnataka14-10-2021
PAGARPAY INDIA PRIVATE LIMITEDU72900KA2021PTC153164IndiaKarnataka14-10-2021
SHREE DIGVIJAY FINANCIAL SERVICES PRIVATE LIMITEDU67100KA2021PTC153124IndiaKarnataka14-10-2021
SHAREPULSE PRIVATE LIMITEDU67100KA2021PTC153150IndiaKarnataka14-10-2021
ADAMYA TRADITIONALS PRIVATE LIMITEDU24290KA2021PTC153149IndiaKarnataka14-10-2021
VELVET MERIDIAN PRIVATE LIMITEDU55100KA2021PTC153117IndiaKarnataka14-10-2021
HENCH TEC SOLUTION PRIVATE LIMITEDU51505KA2021PTC153103IndiaKarnataka14-10-2021
MAJMAA GOLD OVERSEAS PRIVATE LIMITEDU36910KA2021PTC153161IndiaKarnataka14-10-2021
PEOPLETREE EDUTECH PRIVATE LIMITEDU80302KA2021PTC153130IndiaKarnataka14-10-2021
HORANADU FARMER PRODUCER COMPANY LIMITEDU01110KA2021PTC153166IndiaKarnataka14-10-2021
GULLAK TECHNOLOGIES PRIVATE LIMITEDU72900KA2021PTC153176IndiaKarnataka15-10-2021
V GROWTH BROADCASTING INDIA PRIVATE LIMITEDU22300KA2021PTC153179IndiaKarnataka15-10-2021
IJK GOLDEN PROPERTIES AND ESTATE PRIVATELIMITEDU70109KA2021PTC153180IndiaKarnataka15-10-2021
ELCONSYS TECHNOLOGIES PRIVATE LIMITEDU72200KA2021PTC153178IndiaKarnataka15-10-2021
TECHISOR PRIVATE LIMITEDU72200KA2021PTC153177IndiaKarnataka15-10-2021
MIRACLE MIND MARKETING (OPC) PRIVATE LIMITEDU15490KA2021OPC153181IndiaKarnataka16-10-2021
SHRI SASVATAYA HOSPITALITY PRIVATE LIMITEDU55101KA2021PTC153182IndiaKarnataka16-10-2021
DWORD CORE PRIVATE LIMITEDU72900KA2021PTC153188IndiaKarnataka17-10-2021
PRANAGO SOFTWARE PRIVATE LIMITEDU72900KA2021PTC153192IndiaKarnataka17-10-2021
SRIZON CONSULTING PRIVATE LIMITEDU72900KA2021PTC153184IndiaKarnataka17-10-2021
TAMADADDI FARMERS PRODUCER COMPANY LIMITEDU01100KA2021PTC153191IndiaKarnataka17-10-2021
BIDAR-NANDED FARMER PRODUCER COMPANY LIMITEDU01409KA2021PTC153193IndiaKarnataka17-10-2021
ANY HEALTH WELLNESS PRIVATE LIMITEDU80903KA2021PTC153186IndiaKarnataka17-10-2021
JOLICHI PRIVATE LIMITEDU19200KA2021PTC153185IndiaKarnataka17-10-2021
WYONE EDU SOLUTIONS (OPC) PRIVATE LIMITEDU80903KA2021OPC153189IndiaKarnataka17-10-2021
PAVEMENT GK PRIVATE LIMITEDU74999KA2021PTC153183IndiaKarnataka17-10-2021
PRS SUGARS & BIO-FUELS PRIVATE LIMITEDU15400KA2021PTC153190IndiaKarnataka17-10-2021
AARNAV INVESTMENT PROJECTS PRIVATE LIMITEDU67110KA2021PTC153187IndiaKarnataka17-10-2021
TAANISH RESOURCES PRIVATE LIMITEDU27201KA2021PTC153194IndiaKarnataka17-10-2021
INTEGRITY AND CORROSION CONTROL PRIVATE LIMITEDU29308KA2021PTC153219IndiaKarnataka18-10-2021
ELDRICARE HEALTH & WELLNESS PRIVATE LIMITEDU85100KA2021PTC153214IndiaKarnataka18-10-2021
KUKKE SHRI FARMER PRODUCER COMPANY LIMITEDU01100KA2021PTC153200IndiaKarnataka18-10-2021
SHREE VEERABHADRESHWARA CLEAN FUELS PRODUCER COMPANY LIMITEDU01100KA2021PTC153208IndiaKarnataka18-10-2021
URBAN PARADIGM INFRASTRUCTURES PRIVATE LIMITEDU45400KA2021PTC153195IndiaKarnataka18-10-2021
KHAN TRADING PRIVATE LIMITEDU52322KA2021PTC153196IndiaKarnataka18-10-2021
CANCLIB PRIVATE LIMITEDU51909KA2021PTC153227IndiaKarnataka18-10-2021
AGMNR FOODS AND BEVERAGES PRIVATE LIMITEDU55209KA2021PTC153203IndiaKarnataka18-10-2021
HIVE ENTERPRISES PRIVATE LIMITEDU55209KA2021PTC153205IndiaKarnataka18-10-2021
ROCK N ROLL ORIGINALS PRIVATE LIMITEDU74999KA2021PTC153202IndiaKarnataka18-10-2021
RESBOT CONSULTING PRIVATE LIMITEDU74999KA2021PTC153211IndiaKarnataka18-10-2021
SOLVEEASY CONSULTANCY PRIVATE LIMITEDU74999KA2021PTC153212IndiaKarnataka18-10-2021
AFAA PRIVATE LIMITEDU74999KA2021PTC153216IndiaKarnataka18-10-2021
MAHA SHIVRATRI POLYMERS PRIVATE LIMITEDU74999KA2021PTC153225IndiaKarnataka18-10-2021
VERTEX RENEWABLES PRIVATE LIMITEDU45209KA2021PTC153198IndiaKarnataka18-10-2021
ADONAI MINES AND MINERALS PRIVATE LIMITEDU14290KA2021PTC153206IndiaKarnataka18-10-2021
JANOPAKARI SHETTY’S GLOBAL SERVICES PRIVATE LIMITEDU15400KA2021PTC153210IndiaKarnataka18-10-2021
EXCELYA INDIA PRIVATE LIMITEDU73100KA2021FTC153204IndiaKarnataka18-10-2021
FACCTUM IT SOLUTIONS INDIA PRIVATE LIMITEDU72900KA2021FTC153221IndiaKarnataka18-10-2021
MATHTEK SOLUTIONS PRIVATE LIMITEDU72900KA2021PTC153197IndiaKarnataka18-10-2021
NEO AVISHKARS PRIVATE LIMITEDU51507KA2021PTC153199IndiaKarnataka18-10-2021
CENTIGMA AUTOMATION TECHNOLOGIES PRIVATELIMITEDU72900KA2021PTC153217IndiaKarnataka18-10-2021
MUSK INNOVATIONS PRIVATE LIMITEDU72900KA2021PTC153218IndiaKarnataka18-10-2021
SOFTRONICLABS TECHNOLOGY SERVICES PRIVATE LIMITEDU72900KA2021PTC153220IndiaKarnataka18-10-2021
SKYDNE GLOBAL SOLUTIONS PRIVATE LIMITEDU72900KA2021PTC153222IndiaKarnataka18-10-2021
AMAZIN FINANCIAL TECHNOLOGIES PRIVATE LIMITEDU72900KA2021PTC153223IndiaKarnataka18-10-2021
NEURONS AI PRIVATE LIMITEDU72900KA2021PTC153226IndiaKarnataka18-10-2021
ANAGLYPH TECHNOLOGIES PRIVATE LIMITEDU72900KA2021PTC153228IndiaKarnataka18-10-2021
SUGGI SEEDS PRIVATE LIMITEDU01110KA2021PTC153224IndiaKarnataka18-10-2021
SHRI VENKET RAMNA AGRO INDUSTRIES PRIVATE LIMITEDU24299KA2021PTC153209IndiaKarnataka18-10-2021
MENTORS FOR KIDS FOUNDATIONU80211KA2021NPL153215IndiaKarnataka18-10-2021
BHASMAN MACHINERIES PRIVATE LIMITEDU51909KA2021PTC153201IndiaKarnataka18-10-2021
HAULMAX GLOBAL ENTERPRISES PRIVATE LIMITEDU51909KA2021PTC153207IndiaKarnataka18-10-2021
KRYSTAL CORNER PRIVATE LIMITEDU51909KA2021PTC153213IndiaKarnataka18-10-2021
SEVEN STONES ENTERTAINMENT PRIVATE LIMITEDU72900KA2021PTC153229IndiaKarnataka19-10-2021
CAPITALKNOB INVESTMENT AND FINANCIAL ADVISORS PRIVATE LIMITEDU67110KA2021PTC153277IndiaKarnataka20-10-2021
AIMLEAP PRIVATE LIMITEDU72900KA2021PTC153258IndiaKarnataka20-10-2021
BLESTOPLEX SOLUTIONS PRIVATE LIMITEDU72900KA2021PTC153266IndiaKarnataka20-10-2021
CISCONIC PRIVATE LIMITEDU72900KA2021PTC153268IndiaKarnataka20-10-2021
GREENOX MOBILITY PRIVATE LIMITEDU35999KA2021PTC153265IndiaKarnataka20-10-2021
GILLIDANDA TECH PRIVATE LIMITEDU72900KA2021PTC153271IndiaKarnataka20-10-2021
URBANRISE CLASSIC HOMES PRIVATE LIMITEDU70103KA2021PTC153249IndiaKarnataka20-10-2021
VALLEYLAB CELL THERAPEUTICS PRIVATE LIMITEDU85100KA2021PTC153253IndiaKarnataka20-10-2021
HUMAN URBAN PRIVATE LIMITEDU74999KA2021PTC153255IndiaKarnataka20-10-2021
ADAVILINGA FUEL PRIVATE LIMITEDU50404KA2021PTC153236IndiaKarnataka20-10-2021
GUTPONICS PRIVATE LIMITEDU24290KA2021PTC153278IndiaKarnataka20-10-2021
EIC VENTURES PRIVATE LIMITEDU74999KA2021PTC153270IndiaKarnataka20-10-2021
KAYOTSARGA FAN FIRST BRANDS PRIVATE LIMITEDU36930KA2021PTC153235IndiaKarnataka20-10-2021
ESTRELLAS SOL LUNA PRIVATE LIMITEDU18100KA2021PTC153242IndiaKarnataka20-10-2021
SUNDIAL ENTERPRISES PRIVATE LIMITEDU52100KA2021PTC153234IndiaKarnataka20-10-2021
SANDYA AUTOMATIONS PRIVATE LIMITEDU30008KA2021PTC153269IndiaKarnataka20-10-2021
SRI LINGESHWARA POWER SYSTEM ELECTRICALSPRIVATE LIMITEDU31900KA2021PTC153244IndiaKarnataka20-10-2021
EQUATION INTERNET PRIVATE LIMITEDU72900KA2021PTC153232IndiaKarnataka20-10-2021
OZE INNOVATIONS PRIVATE LIMITEDU72900KA2021PTC153240IndiaKarnataka20-10-2021
SOUTHERN CROFT PRIVATE LIMITEDU72900KA2021PTC153245IndiaKarnataka20-10-2021
OMKAR PRODUCTIONS PRIVATE LIMITEDU92490KA2021PTC153230IndiaKarnataka20-10-2021
DANEXT TECHNOLOGIES PRIVATE LIMITEDU72900KA2021PTC153246IndiaKarnataka20-10-2021
FITITTUDE INDIA PRIVATE LIMITEDU92490KA2021PTC153261IndiaKarnataka20-10-2021
ARYANLOHITAS CONSTRUCTIONS PRVATE LIMITEDU45400KA2021PTC153243IndiaKarnataka20-10-2021
VALOS INTERIORS PRIVATE LIMITEDU45400KA2021PTC153250IndiaKarnataka20-10-2021
NEWS MECHANICS PRIVATE LIMITEDU22190KA2021PTC153259IndiaKarnataka20-10-2021
HIPPARAGI PROJECTS PRIVATE LIMITEDU45400KA2021PTC153273IndiaKarnataka20-10-2021
GREENMANIA MODERN RETAILS PRIVATE LIMITEDU01110KA2021PTC153272IndiaKarnataka20-10-2021
DELFI FINANCIAL ADVISORS PRIVATE LIMITEDU67100KA2021PTC153260IndiaKarnataka20-10-2021
BODHI ALLY FOUNDATIONU80900KA2021NPL153267IndiaKarnataka20-10-2021
LMV AGRO PRIVATE LIMITEDU36990KA2021PTC153247IndiaKarnataka20-10-2021
LOLELO INDIA PRIVATE LIMITEDU74999KA2021PTC153275IndiaKarnataka20-10-2021
SIPRAHUB (OPC) PRIVATE LIMITEDU70109KA2021OPC153231IndiaKarnataka20-10-2021
SREEKAILASANATHA FARMER PRODUCER COMPANYLIMITEDU01100KA2021PTC153274IndiaKarnataka20-10-2021
RUTVI DECOR PRIVATE LIMITEDU74999KA2021PTC153276IndiaKarnataka20-10-2021
SAGARI VENTURES PRIVATE LIMITEDU51310KA2021PTC153233IndiaKarnataka20-10-2021
YOLO RESIDENCES PRIVATE LIMITEDU70109KA2021PTC153256IndiaKarnataka20-10-2021
SRI BHAIRAVESHWARA TEXTILE INFRA PRIVATELIMITEDU70109KA2021PTC153262IndiaKarnataka20-10-2021
BUMIPUTRA RESORTS PRIVATE LIMITEDU55100KA2021PTC153257IndiaKarnataka20-10-2021
PANCHADASHA BOJANA SHAALA PRIVATE LIMITEDU55101KA2021PTC153239IndiaKarnataka20-10-2021
OMKAR ESSELLVEE ENVIRONMENT SOLUTIONS AND PROJECTS PRIVATE LIMITEDU41000KA2021PTC153263IndiaKarnataka20-10-2021
HEALINGHANDS MISSION INTERNATIONAL FOUNDATIONU85300KA2021NPL153237IndiaKarnataka20-10-2021
DEESHA S AND S MULTITRADE PRIVATE LIMITEDU51909KA2021PTC153238IndiaKarnataka20-10-2021
TPS TECHNOLOGIES LIMITEDU72200KA2021PLC153264IndiaKarnataka20-10-2021
FORXPAT INDIA PRIVATE LIMITEDU72200KA2021PTC153252IndiaKarnataka20-10-2021
VRUDHI INFOTAINMENT PRIVATE LIMITEDU72200KA2021PTC153254IndiaKarnataka20-10-2021
MRAJ VENTURES (OPC) PRIVATE LIMITEDU45203KA2021OPC153248IndiaKarnataka20-10-2021
PINNACLEO PRIVATE LIMITEDU72300KA2021PTC153241IndiaKarnataka20-10-2021
SWAAMYG MEDIA AND ENTERTAINMENTS PRIVATELIMITEDU64203KA2021PTC153251IndiaKarnataka20-10-2021
NEXT DEFENCE PRIVATE LIMITEDU29300KA2021PTC153279IndiaKarnataka20-10-2021
NAMMAXFIT PRIVATE LIMITEDU85190KA2021PTC153301IndiaKarnataka21-10-2021
GRAZING LAND AGRO PRIVATE LIMITEDU01100KA2021PTC153290IndiaKarnataka21-10-2021
RAMNAGAR INFRAPROJECTS PRIVATE LIMITEDU45201KA2021PTC153326IndiaKarnataka21-10-2021
KOHA GIFTS PRIVATE LIMITEDU74996KA2021PTC153298IndiaKarnataka21-10-2021
NAVABHARATHA PRAJA CHITS PRIVATE LIMITEDU65992KA2021PTC153310IndiaKarnataka21-10-2021
DAWAAIIRX (OPC) PRIVATE LIMITEDU85300KA2021OPC153286IndiaKarnataka21-10-2021
UNITE TO RISE (OPC) PRIVATE LIMITEDU85300KA2021OPC153305IndiaKarnataka21-10-2021
BRIONIC HEALTHCARE PRIVATE LIMITEDU85300KA2021PTC153289IndiaKarnataka21-10-2021
VIGNAHARA CHITS PRIVATE LIMITEDU65999KA2021PTC153331IndiaKarnataka21-10-2021
AIP PRODUCTS AND SOLUTIONS PRIVATE LIMITEDU20299KA2021PTC153291IndiaKarnataka21-10-2021
TUCKERS APPARELS PRIVATE LIMITEDU52320KA2021PTC153327IndiaKarnataka21-10-2021
BATTLE OF QUILLS (OPC) PRIVATE LIMITEDU72900KA2021OPC153287IndiaKarnataka21-10-2021
REVOLUT TECHNOLOGIES PRIVATE LIMITEDU72900KA2021PTC153281IndiaKarnataka21-10-2021
AGARTHA VENTURES PRIVATE LIMITEDU72900KA2021PTC153294IndiaKarnataka21-10-2021
CENTAUR CEMENTS PRIVATE LIMITEDU26999KA2021PTC153280IndiaKarnataka21-10-2021
SMILEONN TECHNOLOGIES PRIVATE LIMITEDU72900KA2021PTC153306IndiaKarnataka21-10-2021
PRIMOZEN TECH PRIVATE LIMITEDU72900KA2021PTC153311IndiaKarnataka21-10-2021
WEBLEDGER SOLUTIONS PRIVATE LIMITEDU72900KA2021PTC153312IndiaKarnataka21-10-2021
FRIENDBASE INDIA PRIVATE LIMITEDU72900KA2021PTC153313IndiaKarnataka21-10-2021
ROBOPROTECH CEMENT PRIVATE LIMITEDU27200KA2021PTC153300IndiaKarnataka21-10-2021
DIFFUSIONE CONSULTING PRIVATE LIMITEDU72900KA2021PTC153318IndiaKarnataka21-10-2021
CAI SOLUTIONS PRIVATE LIMITEDU72900KA2021PTC153323IndiaKarnataka21-10-2021
EQUITYWORKS FINANCIAL SERVICES PRIVATE LIMITEDU67100KA2021PTC153325IndiaKarnataka21-10-2021
VANADURGA ENTERPRISE PRIVATE LIMITEDU72900KA2021PTC153329IndiaKarnataka21-10-2021
ADSDB 21 DENTS PRIVATE LIMITEDU72900KA2021PTC153330IndiaKarnataka21-10-2021
A2Y ERP LEAGUE PRIVATE LIMITEDU72900KA2021PTC153333IndiaKarnataka21-10-2021
CLICKINF GLOBAL PRIVATE LIMITEDU72900KA2021PTC153336IndiaKarnataka21-10-2021
JM AERO COATS PRIVATE LIMITEDU28999KA2021PTC153293IndiaKarnataka21-10-2021
RITIH SOLUTIONS PRIVATE LIMITEDU67190KA2021PTC153332IndiaKarnataka21-10-2021
NEW GENERATION CAREER SOLUTIONS PRIVATE LIMITEDU80301KA2021PTC153322IndiaKarnataka21-10-2021
LAUGHING WATER PRODUCTIONS PRIVATE LIMITEDU92140KA2021PTC153303IndiaKarnataka21-10-2021
TUNGABHADRA ETHANOL PRIVATE LIMITEDU24100KA2021PTC153328IndiaKarnataka21-10-2021
EASYROBOT TECHNOLOGIES PRIVATE LIMITEDU29309KA2021PTC153320IndiaKarnataka21-10-2021
GAMECHANGE SOLAR SERVICES INDIA PRIVATE LIMITEDU74999KA2021FTC153316IndiaKarnataka21-10-2021
DIAL INDIA DIAL BIJAPUR PRIVATE LIMITEDU74999KA2021PTC153283IndiaKarnataka21-10-2021
TRANZALL FINTECH PRIVATE LIMITEDU74999KA2021PTC153307IndiaKarnataka21-10-2021
SVADESHI TECHNOLOGIES PRIVATE LIMITEDU74999KA2021PTC153308IndiaKarnataka21-10-2021
TRAVEL AND I PRIVATE LIMITEDU74999KA2021PTC153309IndiaKarnataka21-10-2021
RHIBHUS SYSTEMS PRIVATE LIMITEDU74999KA2021PTC153314IndiaKarnataka21-10-2021
ESTASHIRE GLOBAL REALTORS PRIVATE LIMITEDU70109KA2021PTC153302IndiaKarnataka21-10-2021
INFOLINE GLOBAL BPO PRIVATE LIMITEDU74999KA2021PTC153319IndiaKarnataka21-10-2021
URBANRISE CONDOMINIUMS PRIVATE LIMITEDU70109KA2021PTC153315IndiaKarnataka21-10-2021
SAVADIA’S CREATION PRIVATE LIMITEDU74999KA2021PTC153324IndiaKarnataka21-10-2021
INDRAPRASTHA MKB PRIVATE LIMITEDU70109KA2021PTC153334IndiaKarnataka21-10-2021
PADMALAYA ARTISANAL GUILD PRIVATE LIMITEDU51909KA2021PTC153282IndiaKarnataka21-10-2021
YUVRAJ NIDHI LIMITEDU65929KA2021PLN153337IndiaKarnataka21-10-2021
PIXGIFTS PRIVATE LIMITEDU51909KA2021PTC153284IndiaKarnataka21-10-2021
SADEX COMMERCE PRIVATE LIMITEDU51909KA2021PTC153288IndiaKarnataka21-10-2021
ARICHS GLOBAL SOLUTIONS PRIVATE LIMITEDU51909KA2021PTC153297IndiaKarnataka21-10-2021
CLEAR THOUGHTS ONLINE SOLUTIONS PRIVATE LIMITEDU72400KA2021PTC153304IndiaKarnataka21-10-2021
VACAYS LEISURE TRAVEL PRIVATE LIMITEDU63040KA2021PTC153335IndiaKarnataka21-10-2021
KUSHALKARMI COUNCILU80904KA2021NPL153317IndiaKarnataka21-10-2021
ZARDEN PHARMA PRIVATE LIMITEDU24290KA2021PTC153295IndiaKarnataka21-10-2021
MK CAB SERVICES PRIVATE LIMITEDU63090KA2021PTC153296IndiaKarnataka21-10-2021
PERFECT BEAUTY SPOT PRIVATE LIMITEDU93020KA2021PTC153285IndiaKarnataka21-10-2021
APEX FREE ENERGY WHEELS PRIVATE LIMITEDU34300KA2021PTC153292IndiaKarnataka21-10-2021
MOTOR MONK TECHNOLOGIES PRIVATE LIMITEDU34300KA2021PTC153299IndiaKarnataka21-10-2021
SRISAI AUTOTECK PRIVATE LIMITEDU34300KA2021PTC153321IndiaKarnataka21-10-2021
ACCESSOFT INFOLABS PRIVATE LIMITEDU72200KA2021PTC153339IndiaKarnataka21-10-2021
ANEGUDDI IMPEX PRIVATE LIMITEDU13209KA2021PTC153338IndiaKarnataka21-10-2021
ADVENTURE CONSULTANCY SOLUTIONS INDIA PRIVATE LIMITEDU72900KA2021FTC153405IndiaKarnataka22-10-2021
CLOUD INVENTIV (OPC) PRIVATE LIMITEDU72900KA2021OPC153360IndiaKarnataka22-10-2021
DESIGN DREAM STUDIO PRIVATE LIMITEDU72900KA2021PTC153344IndiaKarnataka22-10-2021
JOVAS TECH SOLUTIONS PRIVATE LIMITEDU29190KA2021PTC153414IndiaKarnataka22-10-2021
DAYBEST SABRO AERIAL INTELLIGENCE PRIVATE LIMITEDU72900KA2021PTC153345IndiaKarnataka22-10-2021
TIPSTER TECHNOLOGIES PRIVATE LIMITEDU72900KA2021PTC153370IndiaKarnataka22-10-2021
VAKEELSPOT TECHNOLOGIES PRIVATE LIMITEDU72900KA2021PTC153379IndiaKarnataka22-10-2021
CIZEL TECHNOLOGIES PRIVATE LIMITEDU72900KA2021PTC153381IndiaKarnataka22-10-2021
ZETAR PRIVATE LIMITEDU72900KA2021PTC153387IndiaKarnataka22-10-2021
OZIBOOK TECH SOLUTIONS PRIVATE LIMITEDU72900KA2021PTC153389IndiaKarnataka22-10-2021
VIVUSOFT TECHNOLOGIES PRIVATE LIMITEDU72900KA2021PTC153400IndiaKarnataka22-10-2021
RUDEEM INDIA SOFTWARE SOLUTIONS PRIVATE LIMITEDU72900KA2021PTC153407IndiaKarnataka22-10-2021
TECHTURF TECHNOLOGIES PRIVATE LIMITEDU72900KA2021PTC153408IndiaKarnataka22-10-2021
BI CONSULTANCY AND SERVICES PRIVATE LIMITEDU72900KA2021PTC153413IndiaKarnataka22-10-2021
GULAABEE GHAR FOUNDATIONU85300KA2021NPL153374IndiaKarnataka22-10-2021
CHITAYU TECHNOLOGIES PRIVATE LIMITEDU72900KA2021PTC153417IndiaKarnataka22-10-2021
ACHINTYA FOUNDATIONU85300KA2021NPL153376IndiaKarnataka22-10-2021
MECHLERGY PRIVATE LIMITEDU29299KA2021PTC153401IndiaKarnataka22-10-2021
AANAVIKRISO TRADING PRIVATE LIMITEDU52609KA2021PTC153372IndiaKarnataka22-10-2021
TREECITY VENTURES PRIVATE LIMITEDU45309KA2021PTC153361IndiaKarnataka22-10-2021
AELIN MEDIA PRIVATE LIMITEDU72900KA2021PTC153419IndiaKarnataka22-10-2021
ANIKETHANA FOOD PROCESSING FOUNDATIONU85300KA2021NPL153392IndiaKarnataka22-10-2021
MIST LGBTQ FOUNDATIONU85300KA2021NPL153422IndiaKarnataka22-10-2021
WIPRO HYDRAULICS PRIVATE LIMITEDU29305KA2021PTC153364IndiaKarnataka22-10-2021
STARMEX PRIVATE LIMITEDU19100KA2021PTC153385IndiaKarnataka22-10-2021
SAMANVAYA INNOVATIONS PRIVATE LIMITEDU20230KA2021PTC153340IndiaKarnataka22-10-2021
EFTASTAR TECHSOLUTIONS PRIVATE LIMITEDU29309KA2021PTC153356IndiaKarnataka22-10-2021
MAVERIC AUTOMATION PRIVATE LIMITEDU29309KA2021PTC153359IndiaKarnataka22-10-2021
K S P MEDIA PRIVATE LIMITEDU22300KA2021PTC153380IndiaKarnataka22-10-2021
IINSPIRA-SHILPA STRUCTURES PRIVATE LIMITEDU70109KA2021PTC153342IndiaKarnataka22-10-2021
CUBICWAY SOFT TECHNOLOGIES (OPC) PRIVATELIMITEDU80902KA2021OPC153420IndiaKarnataka22-10-2021
YOGA CLAN PRIVATE LIMITEDU93000KA2021PTC153346IndiaKarnataka22-10-2021
MYHEART CREATIONS (OPC) PRIVATE LIMITEDU93000KA2021OPC153386IndiaKarnataka22-10-2021
SOULFULSPLASH (OPC) PRIVATE LIMITEDU24290KA2021OPC153354IndiaKarnataka22-10-2021
BASAVA SUGAR AND ETHANOL INDUSTRIES PRIVATE LIMITEDU24290KA2021PTC153409IndiaKarnataka22-10-2021
FINCHWAYS GLOBAL VENTURE PRIVATE LIMITEDU63040KA2021PTC153365IndiaKarnataka22-10-2021
BAYTOP TECHNOLOGIES PRIVATE LIMITEDU72200KA2021PTC153398IndiaKarnataka22-10-2021
SAI BALAJI CERAMICS PRIVATE LIMITEDU51909KA2021PTC153390IndiaKarnataka22-10-2021
SRN PHARMA PRIVATE LIMITEDU51909KA2021PTC153402IndiaKarnataka22-10-2021
TRIDENTE MODERN FARMS PRIVATE LIMITEDU01119KA2021PTC153352IndiaKarnataka22-10-2021
NATURES CHICKEN SPECIALITY FOODS PRIVATELIMITEDU15110KA2021PTC153396IndiaKarnataka22-10-2021
SHIVAANSHI EXPORTS PRIVATE LIMITEDU15130KA2021PTC153369IndiaKarnataka22-10-2021
COLLECTIVEBLOOM TECHNOLOGIES PRIVATE LIMITEDU80904KA2021PTC153350IndiaKarnataka22-10-2021
GENRISE MEDICINE PRIVATE LIMITEDU24299KA2021PTC153415IndiaKarnataka22-10-2021
KMF CHITS PRIVATE LIMITEDU65929KA2021PTC153395IndiaKarnataka22-10-2021
CHELURU ANNADATA FARMERS PRODUCER COMPANY LIMITEDU01100KA2021PTC153348IndiaKarnataka22-10-2021
GROWWRISING VENTURES PRIVATE LIMITEDU45200KA2021PTC153366IndiaKarnataka22-10-2021
HITESH AGRI SOLUTIONS PRIVATE LIMITEDU01100KA2021PTC153349IndiaKarnataka22-10-2021
BOH FOREVER PRIVATE LIMITEDU01100KA2021PTC153393IndiaKarnataka22-10-2021
PURN SWARAJYA FARMER PRODUCER COMPANY LIMITEDU01100KA2021PTC153404IndiaKarnataka22-10-2021
RAITAMITRA BIOFUELS PRODUCER COMPANY LIMITEDU01100KA2021PTC153416IndiaKarnataka22-10-2021
PET EDGE PRIVATE LIMITEDU15540KA2021PTC153363IndiaKarnataka22-10-2021
CHIKKATTI AGRICULTURAL FARMERS PRODUCER COMPANY LIMITEDU01100KA2021PTC153421IndiaKarnataka22-10-2021
SUPERCOIN GOLD INDIA PRIVATE LIMITEDU52100KA2021PTC153388IndiaKarnataka22-10-2021
MYBIOBACKUP PRIVATE LIMITEDU85110KA2021PTC153383IndiaKarnataka22-10-2021
BMK INNOVATIVES PRIVATE LIMITEDU52335KA2021PTC153341IndiaKarnataka22-10-2021
PIXELCORE SOFTWARE PRIVATE LIMITEDU52392KA2021PTC153373IndiaKarnataka22-10-2021
AQUA FRESH RO HI-TECH PRIVATE LIMITEDU52397KA2021PTC153367IndiaKarnataka22-10-2021
INFINI REALTORS PRIVATE LIMITEDU70109KA2021PTC153371IndiaKarnataka22-10-2021
TALLURU REALTORS PRIVATE LIMITEDU70109KA2021PTC153394IndiaKarnataka22-10-2021
PAB RAITA BIOFUELS PRIVATE LIMITEDU23200KA2021PTC153357IndiaKarnataka22-10-2021
JOY OF GIVING INFRATECH PRIVATE LIMITEDU70109KA2021PTC153397IndiaKarnataka22-10-2021
PRAGYA AUTOMOBILE PRIVATE LIMITEDU50400KA2021PTC153358IndiaKarnataka22-10-2021
ARDOR PROJECTS PRIVATE LIMITEDU70109KA2021PTC153406IndiaKarnataka22-10-2021
VEVRA REALTY AND ASSETS PRIVATE LIMITEDU70109KA2021PTC153412IndiaKarnataka22-10-2021
EV MOTO PARK PRIVATE LIMITEDU50400KA2021PTC153382IndiaKarnataka22-10-2021
BAJUWALA SERVICES PRIVATE LIMITEDU74999KA2021PTC153343IndiaKarnataka22-10-2021
DR. DHIRAJ’S HEALTH TECH PRIVATE LIMITEDU33119KA2021PTC153410IndiaKarnataka22-10-2021
SEVA BRIGADE FOUNDATIONU80301KA2021NPL153362IndiaKarnataka22-10-2021
VYAPYA SOFTWARE PRIVATE LIMITEDU74999KA2021PTC153347IndiaKarnataka22-10-2021
STRATEGY MONKS PRIVATE LIMITEDU74999KA2021PTC153351IndiaKarnataka22-10-2021
BLUEZOO PRIVATE LIMITEDU51399KA2021PTC153375IndiaKarnataka22-10-2021
SCALE.IO TECHNOLOGIES PRIVATE LIMITEDU74999KA2021PTC153353IndiaKarnataka22-10-2021
BIRD360 TECH SOLUTIONS PRIVATE LIMITEDU74999KA2021PTC153355IndiaKarnataka22-10-2021
SHOBHANKAR CONSULTANCY SERVICES PRIVATE LIMITEDU74999KA2021PTC153368IndiaKarnataka22-10-2021
SHARP COMMANDOS PRIVATE LIMITEDU74999KA2021PTC153377IndiaKarnataka22-10-2021
CREZPIRE TECHNOLOGIES PRIVATE LIMITEDU80302KA2021PTC153403IndiaKarnataka22-10-2021
ASTUSANDYA PEAKSTRIDE PRIVATE LIMITEDU74999KA2021PTC153378IndiaKarnataka22-10-2021
GLOBAXY ROBOTECH SOLUTIONS PRIVATE LIMITEDU74999KA2021PTC153384IndiaKarnataka22-10-2021
XU REALTECH SOLUTIONS PRIVATE LIMITEDU74999KA2021PTC153391IndiaKarnataka22-10-2021
WORKPLAY STUDIO PRIVATE LIMITEDU74999KA2021PTC153399IndiaKarnataka22-10-2021
HELLOWORK TECHNOLOGIES PRIVATE LIMITEDU74999KA2021PTC153411IndiaKarnataka22-10-2021
VINSHIK E COMMERCE PRIVATE LIMITEDU74999KA2021PTC153418IndiaKarnataka22-10-2021
LAANGOZ PRIVATE LIMITEDU15400KA2021PTC153431IndiaKarnataka23-10-2021
AURA POWERTRONICS PRIVATE LIMITEDU40100KA2021PTC153489IndiaKarnataka23-10-2021
SHUBHA FRANCIS SERICULTURE INNOVATIVE TECHNOLOGIES (OPC) PRIVATE LIMITEDU74999KA2021OPC153478IndiaKarnataka23-10-2021
STATOFIN ADVISORY (OPC) PRIVATE LIMITEDU74999KA2021OPC153491IndiaKarnataka23-10-2021
ILAARK CONSULTING PRIVATE LIMITEDU72200KA2021PTC153425IndiaKarnataka23-10-2021
H&S BUSINESS SOLUTIONS PRIVATE LIMITEDU74999KA2021PTC153436IndiaKarnataka23-10-2021
EPAL SOFTWARE PRIVATE LIMITEDU72200KA2021PTC153455IndiaKarnataka23-10-2021
CLIFFSON EDUCATION PRIVATE LIMITEDU74999KA2021PTC153487IndiaKarnataka23-10-2021
SPEED PE WORLD LINK PRIVATE LIMITEDU72200KA2021PTC153494IndiaKarnataka23-10-2021
7SCRUM TECHNOLOGIES PRIVATE LIMITEDU74999KA2021PTC153492IndiaKarnataka23-10-2021
ACE TRIBE INDIA PRIVATE LIMITEDU74999KA2021PTC153493IndiaKarnataka23-10-2021
RAJ AND RAGH ENGINEERING PRIVATE LIMITEDU74999KA2021PTC153497IndiaKarnataka23-10-2021
KRIPAA POWERS PRIVATE LIMITEDU40300KA2021PTC153441IndiaKarnataka23-10-2021
PRAKRUTHIFRESH FARMERS ORGANIC VEGITABLES AND FRUITS PRIVATE LIMITEDU01100KA2021PTC153460IndiaKarnataka23-10-2021
REGEN AGRI PRIVATE LIMITEDU01100KA2021PTC153469IndiaKarnataka23-10-2021
BLUETRAY EXIM’S PRIVATE LIMITEDU51909KA2021PTC153466IndiaKarnataka23-10-2021
ABR SMARTEK INDIA PRIVATE LIMITEDU51909KA2021PTC153486IndiaKarnataka23-10-2021
SHREESHA GREENTECH PRIVATE LIMITEDU26990KA2021PTC153437IndiaKarnataka23-10-2021
SASC SERVICES (OPC) PRIVATE LIMITEDU85110KA2021OPC153439IndiaKarnataka23-10-2021
HITHESH MAGNATE LOGISTICS (OPC) PRIVATE LIMITEDU64200KA2021OPC153454IndiaKarnataka23-10-2021
SUDDISAMPOORNA TELEMEDIA PRIVATE LIMITEDU64200KA2021PTC153424IndiaKarnataka23-10-2021
HALAF CREATIONS (OPC) PRIVATE LIMITEDU18100KA2021OPC153433IndiaKarnataka23-10-2021
TANTIA PAPERS PRIVATE LIMITEDU21000KA2021PTC153496IndiaKarnataka23-10-2021
AMICIS SOLUTIONS INDIA PRIVATE LIMITEDU72900KA2021FTC153426IndiaKarnataka23-10-2021
H-KARE SOLUTIONS INDIA PRIVATE LIMITEDU72900KA2021FTC153452IndiaKarnataka23-10-2021
TWININC PRIVATE LIMITEDU52100KA2021PTC153449IndiaKarnataka23-10-2021
TURBOCOM TECHNOLOGIES (OPC) PRIVATE LIMITEDU72900KA2021OPC153450IndiaKarnataka23-10-2021
THOX TECHNOLOGIES PRIVATE LIMITEDU72900KA2021PTC153423IndiaKarnataka23-10-2021
TANZIVA PRIVATE LIMITEDU52100KA2021PTC153488IndiaKarnataka23-10-2021
REDINENT INNOVATIONS PRIVATE LIMITEDU72900KA2021PTC153428IndiaKarnataka23-10-2021
PANCHATHARA CHITS PRIVATE LIMITEDU65992KA2021PTC153481IndiaKarnataka23-10-2021
DIVYA SRI SIDDHI CONSULTING PRIVATE LIMITEDU74140KA2021PTC153468IndiaKarnataka23-10-2021
ENGAGEHIVE SOFTWARE PRIVATE LIMITEDU72900KA2021PTC153434IndiaKarnataka23-10-2021
DATA BRIDGING BIRD PRIVATE LIMITEDU72900KA2021PTC153438IndiaKarnataka23-10-2021
HCFI TECHNOLOGIES PRIVATE LIMITEDU72900KA2021PTC153440IndiaKarnataka23-10-2021
HEVEA REVELATION TECHNOLOGIES PRIVATE LIMITEDU72900KA2021PTC153446IndiaKarnataka23-10-2021
KORNEUM SOFTECH PRIVATE LIMITEDU72900KA2021PTC153453IndiaKarnataka23-10-2021
JAINX CAPITAL FINANCE PRIVATE LIMITEDU65999KA2021PTC153465IndiaKarnataka23-10-2021
TEKSILICON TECHNOLOGIES PRIVATE LIMITEDU72900KA2021PTC153461IndiaKarnataka23-10-2021
IGAN ASSOCIATES PRIVATE LIMITEDU52339KA2021PTC153427IndiaKarnataka23-10-2021
ODIRASIX TECHNOLOGY PRIVATE LIMITEDU72900KA2021PTC153463IndiaKarnataka23-10-2021
OPWIN TECHNOLOGY PRIVATE LIMITEDU72900KA2021PTC153464IndiaKarnataka23-10-2021
DISENO ANIMATION STUDIOS PRIVATE LIMITEDU72900KA2021PTC153470IndiaKarnataka23-10-2021
STACKWALK TECHNOLOGIES PRIVATE LIMITEDU72900KA2021PTC153471IndiaKarnataka23-10-2021
NABS INFRA PRIVATE LIMITEDU45500KA2021PTC153458IndiaKarnataka23-10-2021
MOSLI PRIVATE LIMITEDU72900KA2021PTC153479IndiaKarnataka23-10-2021
CONTOUR ESTATES PRIVATE LIMITEDU45500KA2021PTC153482IndiaKarnataka23-10-2021
MOVILITY ROBOTICS PRIVATE LIMITEDU33100KA2021PTC153435IndiaKarnataka23-10-2021
SUPERLIORA TEXTILES PRIVATE LIMITEDU52399KA2021PTC153467IndiaKarnataka23-10-2021
VST SUPERCARS PRIVATE LIMITEDU50101KA2021PTC153473IndiaKarnataka23-10-2021
MYTRI HERITAGE FOUNDATIONU92322KA2021NPL153477IndiaKarnataka23-10-2021
SANTRINA SOLUTIONS PRIVATE LIMITEDU55100KA2021PTC153430IndiaKarnataka23-10-2021
PLAYHIVE PRIVATE LIMITEDU80301KA2021PTC153445IndiaKarnataka23-10-2021
NABS DWELLING PRIVATE LIMITEDU70109KA2021PTC153456IndiaKarnataka23-10-2021
NABS VILLAS PRIVATE LIMITEDU70109KA2021PTC153457IndiaKarnataka23-10-2021
NABS TECHPARK PRIVATE LIMITEDU70109KA2021PTC153459IndiaKarnataka23-10-2021
PODI & SPICE VENTURES PRIVATE LIMITEDU55101KA2021PTC153476IndiaKarnataka23-10-2021
AURUS LIFESTYLE PRIVATE LIMITEDU36109KA2021PTC153495IndiaKarnataka23-10-2021
CONGUE ENGINEERING PRIVATE LIMITEDU51900KA2021PTC153443IndiaKarnataka23-10-2021
PROPGENIES INFRA TECH PRIVATE LIMITEDU70109KA2021PTC153462IndiaKarnataka23-10-2021
NRG ORGANICS PRIVATE LIMITEDU24290KA2021PTC153444IndiaKarnataka23-10-2021
PEARL ORIENT HOTELS AND RESORTS PRIVATE LIMITEDU55101KA2021PTC153480IndiaKarnataka23-10-2021
TREE HOUSE PRODUCTIONS PRIVATE LIMITEDU92490KA2021PTC153429IndiaKarnataka23-10-2021
UNISTAR KITE MEDIA LINKS AND EVENTS PRIVATE LIMITEDU92490KA2021PTC153442IndiaKarnataka23-10-2021
ARTHACHANAKYA TECHNOLOGIES PRIVATE LIMITEDU80900KA2021PTC153451IndiaKarnataka23-10-2021
SOLIDROCK TECHNO GYM PRIVATE LIMITEDU92490KA2021PTC153474IndiaKarnataka23-10-2021
CAREER PANDIT EDU TECH PRIVATE LIMITEDU80901KA2021PTC153475IndiaKarnataka23-10-2021
FCL SPECIALITY FOODS PRIVATE LIMITEDU15209KA2021PTC153472IndiaKarnataka23-10-2021
VASUDHESHA BIO FARMER PRODUCER COMPANY LIMITEDU01409KA2021PTC153432IndiaKarnataka23-10-2021
LINQELLA PRIVATE LIMITEDU74900KA2021PTC153561IndiaKarnataka25-10-2021
CHARGEPORT INDIA PRIVATE LIMITEDU29308KA2021PTC153570IndiaKarnataka25-10-2021
EVAAN DESIGN STUDIO PRIVATE LIMITEDU45309KA2021PTC153541IndiaKarnataka25-10-2021
LUAR TECHNOLOGIES PRIVATE LIMITEDU52100KA2021PTC153508IndiaKarnataka25-10-2021
UASB AGRI INNOVATION CENTERU85300KA2021NPL153528IndiaKarnataka25-10-2021
TRAINE HEALTH TECH PRIVATE LIMITEDU85300KA2021PTC153499IndiaKarnataka25-10-2021
INNERPEACE AND WELLNESS PRIVATE LIMITEDU52321KA2021PTC153520IndiaKarnataka25-10-2021
VUDUTHA INDIA PRIVATE LIMITEDU80221KA2021PTC153552IndiaKarnataka25-10-2021
SRI VEERANJANEYA ELECTRICALS AND CONSTRUCTION PRIVATE LIMITEDU45400KA2021PTC153518IndiaKarnataka25-10-2021
VOPNO WEB SERVICES PRIVATE LIMITEDU72900KA2021PTC153498IndiaKarnataka25-10-2021
PRESTIGE ACRES PRIVATE LIMITEDU45400KA2021PTC153545IndiaKarnataka25-10-2021
ANDALOT LOGICS PRIVATE LIMITEDU72900KA2021PTC153502IndiaKarnataka25-10-2021
HARIEL TECHNOLOGY PRIVATE LIMITEDU72900KA2021PTC153507IndiaKarnataka25-10-2021
AADRIKA VENTURES PRIVATE LIMITEDU72900KA2021PTC153519IndiaKarnataka25-10-2021
ALEKXA GOLD INDIA (OPC) PRIVATE LIMITEDU52393KA2021OPC153543IndiaKarnataka25-10-2021
PANDARAPUR CHITS PRIVATE LIMITEDU65992KA2021PTC153527IndiaKarnataka25-10-2021
AMRUTHA VARSHINI DESIGN AND TECH PRIVATELIMITEDU72900KA2021PTC153521IndiaKarnataka25-10-2021
EIDEN WHOO TECHNOLOGY PRIVATE LIMITEDU72900KA2021PTC153529IndiaKarnataka25-10-2021
PAWAN SHAKTI PAPERS PRIVATE LIMITEDU21000KA2021PTC153517IndiaKarnataka25-10-2021
UDIGO PRIVATE LIMITEDU72900KA2021PTC153530IndiaKarnataka25-10-2021
SHREE LAXMI SPONGE PRIVATE LIMITEDU52399KA2021PTC153506IndiaKarnataka25-10-2021
TEXTERITY PRIVATE LIMITEDU72900KA2021PTC153540IndiaKarnataka25-10-2021
SOLUTIONSPOT INDIA PRIVATE LIMITEDU72900KA2021PTC153553IndiaKarnataka25-10-2021
TEK HUMANITY PRIVATE LIMITEDU72900KA2021PTC153562IndiaKarnataka25-10-2021
PROMETHEUS EXPONENTIAL PRIVATE LIMITEDU72900KA2021PTC153563IndiaKarnataka25-10-2021
PN TECHNOLOGIES PRIVATE LIMITEDU72900KA2021PTC153567IndiaKarnataka25-10-2021
SHIVON ENERGY PRIVATE LIMITEDU31909KA2021PTC153522IndiaKarnataka25-10-2021
MECHZEPHYR ENGINEERING PRIVATE LIMITEDU31909KA2021PTC153544IndiaKarnataka25-10-2021
LEGALSYNE (OPC) PRIVATE LIMITEDU74999KA2021OPC153526IndiaKarnataka25-10-2021
KHIZRA TRADINGS PRIVATE LIMITEDU51909KA2021PTC153509IndiaKarnataka25-10-2021
AVANI PROCESS TECHNOLOGIES PRIVATE LIMITEDU51909KA2021PTC153557IndiaKarnataka25-10-2021
KREZONE PRIVATE LIMITEDU15400KA2021PTC153516IndiaKarnataka25-10-2021
NAVASHAKTHI ENTERPRISES PRIVATE LIMITEDU63000KA2021PTC153539IndiaKarnataka25-10-2021
KANNALLI PATIL CONSTRUCTIONS PRIVATE LIMITEDU45203KA2021PTC153559IndiaKarnataka25-10-2021
DEMAAHE SOLUTIONS PRIVATE LIMITEDU63030KA2021PTC153513IndiaKarnataka25-10-2021
DIGIBLOCKS PRIVATE LIMITEDU72200KA2021PTC153504IndiaKarnataka25-10-2021
CLUB R CONSTRUCTIONS PRIVATE LIMITEDU45209KA2021PTC153512IndiaKarnataka25-10-2021
SNEHA VIDYUTH UDYOGS PRIVATE LIMITEDU45209KA2021PTC153569IndiaKarnataka25-10-2021
CURRY CUTZ FOOD PRIVATE LIMITEDU15490KA2021PTC153511IndiaKarnataka25-10-2021
SIRISUGGI AGRO TECH PRIVATE LIMITEDU15490KA2021PTC153547IndiaKarnataka25-10-2021
SIMON INDIA TECHNICAL SERVICES PRIVATE LIMITEDU73100KA2021FTC153523IndiaKarnataka25-10-2021
MUTHURAYASWAMY FARMER PRODUCER COMPANY LIMITEDU01100KA2021PTC153514IndiaKarnataka25-10-2021
BALANBAZAAR PRIVATE LIMITEDU63040KA2021PTC153558IndiaKarnataka25-10-2021
HIRE RITZ PRIVATE LIMITEDU74110KA2021PTC153548IndiaKarnataka25-10-2021
YVEAGAM INDIA PRIVATE LIMITEDU63090KA2021PTC153564IndiaKarnataka25-10-2021
AUM WATER TECHNOLOGIES PRIVATE LIMITEDU29190KA2021PTC153551IndiaKarnataka25-10-2021
SATTVARITA CONSULTING (OPC) PRIVATE LIMITEDU74999KA2021OPC153537IndiaKarnataka25-10-2021
AIDERS CONSULTING (OPC) PRIVATE LIMITEDU74999KA2021OPC153538IndiaKarnataka25-10-2021
DEJOY99 TECHNOLOGY (OPC) PRIVATE LIMITEDU74999KA2021OPC153542IndiaKarnataka25-10-2021
SKILLSET SOLUTIONS PRIVATE LIMITEDU74999KA2021PTC153503IndiaKarnataka25-10-2021
BAIDAAN LIFE SCIENCES PRIVATE LIMITEDU33100KA2021PTC153531IndiaKarnataka25-10-2021
ARBIS INTERNATIONAL PRIVATE LIMITEDU51432KA2021PTC153535IndiaKarnataka25-10-2021
STARNEXX MANAGEMENT SERVICES PRIVATE LIMITEDU74999KA2021PTC153525IndiaKarnataka25-10-2021
SAMPURNA PATHSHALA PRIVATE LIMITEDU80900KA2021PTC153566IndiaKarnataka25-10-2021
TALENTRABBIT INDIA PRIVATE LIMITEDU74999KA2021PTC153533IndiaKarnataka25-10-2021
ODDBOX BUSINESS SOLUTIONS PRIVATE LIMITEDU74999KA2021PTC153549IndiaKarnataka25-10-2021
PRIMIT IT INFRA SERVICES PRIVATE LIMITEDU74999KA2021PTC153565IndiaKarnataka25-10-2021
INVACT SCHOOL PRIVATE LIMITEDU80902KA2021PTC153515IndiaKarnataka25-10-2021
AAVA HAPPY INDUSTAN PRIVATE LIMITEDU74999KA2021PTC153568IndiaKarnataka25-10-2021
UNIPROOFILERS PRIVATE LIMITEDU80902KA2021PTC153536IndiaKarnataka25-10-2021
REALTYSTACK PRIVATE LIMITEDU70103KA2021PTC153546IndiaKarnataka25-10-2021
LETSLOCALISE INDIA PRIVATE LIMITEDU80902KA2021PTC153555IndiaKarnataka25-10-2021
ZAKINL INFRASTRUCTURE PRIVATE LIMITEDU70109KA2021PTC153500IndiaKarnataka25-10-2021
KALENELE PRIVATE LIMITEDU36900KA2021PTC153556IndiaKarnataka25-10-2021
ANURADHA PROJECTS PRIVATE LIMITEDU70109KA2021PTC153534IndiaKarnataka25-10-2021
V5 SPACE INDIA PRIVATE LIMITEDU70109KA2021PTC153550IndiaKarnataka25-10-2021
AAYUSHMATI HOSPITALITY PRIVATE LIMITEDU55101KA2021PTC153524IndiaKarnataka25-10-2021
CY PAATHASHALA PRIVATE LIMITEDU80904KA2021PTC153505IndiaKarnataka25-10-2021
WEDLEY INDIA PRIVATE LIMITEDU92490KA2021PTC153501IndiaKarnataka25-10-2021
GAMEON TECHNOLOGIES PRIVATE LIMITEDU92490KA2021PTC153554IndiaKarnataka25-10-2021
SABERA HEALTHCARE PRIVATE LIMITEDU85100KA2021PTC153510IndiaKarnataka25-10-2021
CONSTEEL CONSULTANT PRIVATE LIMITEDU45200KA2021PTC153560IndiaKarnataka25-10-2021
TTHA (OPC) PRIVATE LIMITEDU52100KA2021OPC153601IndiaKarnataka26-10-2021
DSLR TECHNOLOGIES PRIVATE LIMITEDU52100KA2021PTC153644IndiaKarnataka26-10-2021
FABCHEF ENGG INDIA PRIVATE LIMITEDU31909KA2021PTC153588IndiaKarnataka26-10-2021
NABS BUILD-WELL PRIVATE LIMITEDU45400KA2021PTC153575IndiaKarnataka26-10-2021
ISIRI BUILDERS AND DEVELOPERS PRIVATE LIMITEDU45400KA2021PTC153637IndiaKarnataka26-10-2021
NIN1 PROPERTIES PRIVATE LIMITEDU45400KA2021PTC153645IndiaKarnataka26-10-2021
SCHMICK TECNOLOGIA PRIVATE LIMITEDU32309KA2021PTC153596IndiaKarnataka26-10-2021
VAVA WELLNESS PRIVATE LIMITEDU52599KA2021PTC153576IndiaKarnataka26-10-2021
PROTAGONIST GLOBAL PRIVATE LIMITEDU33309KA2021PTC153579IndiaKarnataka26-10-2021
CANARES AUTOMOBILES PRIVATE LIMITEDU34100KA2021PTC153580IndiaKarnataka26-10-2021
MANGALORE BUILDERS AND CONTRACTORS PRIVATE LIMITEDU45500KA2021PTC153635IndiaKarnataka26-10-2021
MAHATI FOOD AND BEVERAGES PRIVATE LIMITEDU52609KA2021PTC153602IndiaKarnataka26-10-2021
ANIALEX ENTERPRISES PRIVATE LIMITEDU52609KA2021PTC153642IndiaKarnataka26-10-2021
INVICTUS DEFENCE SYSTEMS PRIVATE LIMITEDU35999KA2021PTC153629IndiaKarnataka26-10-2021
VALANTIC SUPPLY CHAIN EXCELLENCE INDIA PRIVATE LIMITEDU72900KA2021FTC153646IndiaKarnataka26-10-2021
4SEER TECHNOLOGIES PRIVATE LIMITEDU72900KA2021PTC153571IndiaKarnataka26-10-2021
SAPIEN CODE PRIVATE LIMITEDU80301KA2021PTC153630IndiaKarnataka26-10-2021
KEYUP TECHNOLOGIES PRIVATE LIMITEDU72900KA2021PTC153574IndiaKarnataka26-10-2021
ZYNSTAR STRATEGIC SOLUTIONS PRIVATE LIMITEDU72900KA2021PTC153581IndiaKarnataka26-10-2021
VISIONMAP INSURANCE BROKING PRIVATE LIMITEDU66010KA2021PTC153615IndiaKarnataka26-10-2021
MAXDOC LIFE SCIENCES PRIVATE LIMITEDU24290KA2021PTC153573IndiaKarnataka26-10-2021
KOOTLABS TECHNOLOGY PRIVATE LIMITEDU72900KA2021PTC153582IndiaKarnataka26-10-2021
ULTRANUTRI INDIA PRIVATE LIMITEDU73200KA2021PTC153649IndiaKarnataka26-10-2021
ONE SUITE TECHNOLOGIES PRIVATE LIMITEDU72900KA2021PTC153583IndiaKarnataka26-10-2021
CUKATO FOOD TECH PRIVATE LIMITEDU15490KA2021PTC153592IndiaKarnataka26-10-2021
BILWA PROPERTIES PRIVATE LIMITEDU45209KA2021PTC153611IndiaKarnataka26-10-2021
BONDURANT STEEL DETAILING & DESIGN (OPC)PRIVATE LIMITEDU74999KA2021OPC153618IndiaKarnataka26-10-2021
SJR INFOTECH AND MANAGEMENT SERVICES PRIVATE LIMITEDU74999KA2021PTC153586IndiaKarnataka26-10-2021
CERTITUDE OUTSOURCING (INDIA) PRIVATE LIMITEDU74999KA2021PTC153598IndiaKarnataka26-10-2021
SRD HR SERVICES PRIVATE LIMITEDU74999KA2021PTC153608IndiaKarnataka26-10-2021
SERAIN CATEL BUILDERS PRIVATE LIMITEDU45309KA2021PTC153597IndiaKarnataka26-10-2021
VAAS INDUSTRIAL AUTOMATION PRIVATE LIMITEDU74999KA2021PTC153617IndiaKarnataka26-10-2021
GOPPALLIVAARI EXPORTS PRIVATE LIMITEDU15549KA2021PTC153620IndiaKarnataka26-10-2021
DBKRAFT INFRASTRUCTURE PRIVATE LIMITEDU45309KA2021PTC153643IndiaKarnataka26-10-2021
NAGAPUSHPA E-COMMERCE PRIVATE LIMITEDU74999KA2021PTC153621IndiaKarnataka26-10-2021
SRIMANJUNATHA MANPOWER SERVICE (OPC) PRIVATE LIMITEDU72200KA2021OPC153613IndiaKarnataka26-10-2021
VINDYA WELLNESS PRIVATE LIMITEDU74999KA2021PTC153623IndiaKarnataka26-10-2021
EOSTRIX PRIVATE LIMITEDU72200KA2021PTC153606IndiaKarnataka26-10-2021
VYOVAM TECH-SERVICES PRIVATE LIMITEDU74999KA2021PTC153638IndiaKarnataka26-10-2021
RETHINK LABS PRIVATE LIMITEDU72200KA2021PTC153609IndiaKarnataka26-10-2021
VC E-WASTE ENG PRIVATE LIMITEDU29264KA2021PTC153633IndiaKarnataka26-10-2021
EYESEC CYBER SECURITY SOLUTIONS PRIVATE LIMITEDU74999KA2021PTC153639IndiaKarnataka26-10-2021
HIMADURGA FARMER PRODUCER COMPANY LIMITEDU01100KA2021PTC153627IndiaKarnataka26-10-2021
TORXON LITHIUM POWERS (OPC) PRIVATE LIMITEDU29299KA2021OPC153616IndiaKarnataka26-10-2021
CIRCULAR FASHION PRIVATE LIMITEDU18109KA2021PTC153600IndiaKarnataka26-10-2021
GAJATRINAM SUPA PRODUCER COMPANY LIMITEDU01100KA2021PTC153628IndiaKarnataka26-10-2021
IOTRONICS SYSTEM PRIVATE LIMITEDU31900KA2021PTC153626IndiaKarnataka26-10-2021
MEDICINE ON WHEELS PRIVATE LIMITEDU24290KA2021PTC153640IndiaKarnataka26-10-2021
VINUSRI TECHNOLOGIES PRIVATE LIMITEDU72900KA2021PTC153585IndiaKarnataka26-10-2021
DIGIMARKET OPERATIONS PRIVATE LIMITEDU72900KA2021PTC153587IndiaKarnataka26-10-2021
UNLEARN AND LEARN PRIVATE LIMITEDU80900KA2021PTC153622IndiaKarnataka26-10-2021
MANJUNATHESHWARA POWER SYSTEMS & INNOVATION TECHNOLOGY LABS PRIVATE LIMITEDU72900KA2021PTC153591IndiaKarnataka26-10-2021
LAVEENA VENTURES PRIVATE LIMITEDU80900KA2021PTC153636IndiaKarnataka26-10-2021
ROSTRUM EDTECH PRIVATE LIMITEDU72900KA2021PTC153593IndiaKarnataka26-10-2021
BAYAREA AI TECH SOLUTIONS PRIVATE LIMITEDU72900KA2021PTC153595IndiaKarnataka26-10-2021
PGLV FIN SERVICES PRIVATE LIMITEDU74140KA2021PTC153634IndiaKarnataka26-10-2021
OPQ TECH PRIVATE LIMITEDU72900KA2021PTC153604IndiaKarnataka26-10-2021
TBB HOSPITALITY PRIVATE LIMITEDU55200KA2021PTC153607IndiaKarnataka26-10-2021
WIDYRISE TECHNOLOGY PRIVATE LIMITEDU72900KA2021PTC153605IndiaKarnataka26-10-2021
SHALINI THINKS PRIVATE LIMITEDU72900KA2021PTC153610IndiaKarnataka26-10-2021
ONEW24 TECHNOLOGY PRIVATE LIMITEDU72900KA2021PTC153612IndiaKarnataka26-10-2021
VOLOPAY INDIA PRIVATE LIMITEDU67190KA2021FTC153594IndiaKarnataka26-10-2021
MASTER LANGUAGE POINT (OPC) PRIVATE LIMITEDU80902KA2021OPC153599IndiaKarnataka26-10-2021
TOGETHER INNOVATION LABS PRIVATE LIMITEDU72900KA2021PTC153624IndiaKarnataka26-10-2021
VGPAREKH PICTURES PRIVATE LIMITEDU92490KA2021PTC153619IndiaKarnataka26-10-2021
QUIZX PRIVATE LIMITEDU80902KA2021PTC153603IndiaKarnataka26-10-2021
GKCODELABS PRIVATE LIMITEDU72900KA2021PTC153625IndiaKarnataka26-10-2021
ZERO CARBON TECHNOLOGIES PRIVATE LIMITEDU72900KA2021PTC153631IndiaKarnataka26-10-2021
CURENSA PHARMA INDIA PRIVATE LIMITEDU24299KA2021PTC153641IndiaKarnataka26-10-2021
INFIPOSTS PRIVATE LIMITEDU72900KA2021PTC153632IndiaKarnataka26-10-2021
MITRA IN PRIVATE LIMITEDU51909KA2021PTC153584IndiaKarnataka26-10-2021
RCEE ENGISERVE PRIVATE LIMITEDU45200KA2021PTC153614IndiaKarnataka26-10-2021
REILLY HOMES RESIDENTIAL DEVELOPMENTS PRIVATE LIMITEDU70109KA2021PTC153578IndiaKarnataka26-10-2021
VAJRANAKHA ENTERPRISES PRIVATE LIMITEDU15100KA2021PTC153572IndiaKarnataka26-10-2021
SUMEETH AGROWIN PRIVATE LIMITEDU15130KA2021PTC153648IndiaKarnataka26-10-2021
UNIQUEST COMPOSITES PRIVATE LIMITEDU25209KA2021PTC153577IndiaKarnataka26-10-2021
UNIFIED DISTRIBUTION INDIA PRIVATE LIMITEDU15131KA2021PTC153647IndiaKarnataka26-10-2021
VALUE BAZAAR TRADERS PRIVATE LIMITEDU51909KA2021PTC153696IndiaKarnataka27-10-2021
HOMEASE TECHNOLOGIES PRIVATE LIMITEDU74999KA2021PTC153690IndiaKarnataka27-10-2021
RAY ADVERTISERS PRIVATE LIMITEDU74999KA2021PTC153691IndiaKarnataka27-10-2021
SOON SAFE SOLUTIONS PRIVATE LIMITEDU74999KA2021PTC153697IndiaKarnataka27-10-2021
SANKALPAA SYSTEMS SERVICES PRIVATE LIMITEDU74999KA2021PTC153699IndiaKarnataka27-10-2021
DMOH PRIVATE LIMITEDU74999KA2021PTC153687IndiaKarnataka27-10-2021
FUSAMATIC INDIA PRIVATE LIMITEDU25209KA2021PTC153663IndiaKarnataka27-10-2021
DEAR DOGGOS PET BOARDING (OPC) PRIVATE LIMITEDU93090KA2021OPC153698IndiaKarnataka27-10-2021
MEGALYTE PRIVATE LIMITEDU51909KA2021PTC153686IndiaKarnataka27-10-2021
SAFE PEST CONTROL SERVICES PRIVATE LIMITEDU93000KA2021PTC153661IndiaKarnataka27-10-2021
VERIDICAL REALTY PRIVATE LIMITEDU70109KA2021PTC153657IndiaKarnataka27-10-2021
HEALHYMN NUTRIMENT PRIVATE LIMITEDU15490KA2021PTC153677IndiaKarnataka27-10-2021
FROSEIN FOODS PRIVATE LIMITEDU15100KA2021PTC153671IndiaKarnataka27-10-2021
TOPVEG SEEDS PRIVATE LIMITEDU01100KA2021PTC153651IndiaKarnataka27-10-2021
RIGHT VIEW INFRA PROJECTS PRIVATE LIMITEDU45209KA2021PTC153678IndiaKarnataka27-10-2021
SUCHDEB PRIVATE LIMITEDU01100KA2021PTC153675IndiaKarnataka27-10-2021
RAITA RATNA KINNI SADAK FARMERS PRODUCERCOMPANY LIMITEDU01100KA2021PTC153700IndiaKarnataka27-10-2021
PLUS ALPHA DIAGNOSTIC AND HEALTH CARE PRIVATE LIMITEDU85110KA2021PTC153693IndiaKarnataka27-10-2021
PANJURLI LABS PRIVATE LIMITEDU29100KA2021PTC153655IndiaKarnataka27-10-2021
VF TEXTILE AND APPAREL SOLUTIONS PRIVATELIMITEDU17299KA2021PTC153659IndiaKarnataka27-10-2021
ORBSKY HEALTH CARE PRIVATE LIMITEDU85190KA2021PTC153667IndiaKarnataka27-10-2021
ARR TECHNOLOGY SERVICES PRIVATE LIMITEDU72200KA2021PTC153694IndiaKarnataka27-10-2021
INNOPAY CAPITAL PRIVATE LIMITEDU65923KA2021PTC153689IndiaKarnataka27-10-2021
PAKOLA PRIVATE LIMITEDU19129KA2021PTC153682IndiaKarnataka27-10-2021
LATITUDE AIR CONDITIONERS PRIVATE LIMITEDU31909KA2021PTC153662IndiaKarnataka27-10-2021
ACQUISITION RAPPORT TECHNOLOGIES SOLUTIONS PRIVATE LIMITEDU72502KA2021PTC153666IndiaKarnataka27-10-2021
SIRSI METAL ENGINEERING AND FABRICATION ASSOCIATIONU85300KA2021NPL153664IndiaKarnataka27-10-2021
STUDIO SRASTA (OPC) PRIVATE LIMITEDU22300KA2021OPC153683IndiaKarnataka27-10-2021
MOUNTAIN LIVING PRIVATE LIMITEDU52520KA2021PTC153684IndiaKarnataka27-10-2021
SUSTAINABLE CROPS FOUNDATIONU85300KA2021NPL153692IndiaKarnataka27-10-2021
NATURAL HEALTH CARE AND HOSPITALITY PRIVATE LIMITEDU85300KA2021PTC153668IndiaKarnataka27-10-2021
KALKOTI CARE (OPC) PRIVATE LIMITEDU52609KA2021OPC153702IndiaKarnataka27-10-2021
SHALMALA ORGANIC FARMER PRODUCER COMPANYLIMITEDU01110KA2021PTC153679IndiaKarnataka27-10-2021
VIJAYADHWAJA HOSPITALITY PRIVATE LIMITEDU55101KA2021PTC153676IndiaKarnataka27-10-2021
SHIKASH TECH SOLUTIONS (OPC) PRIVATE LIMITEDU72900KA2021OPC153656IndiaKarnataka27-10-2021
MASTER CINEMA PRIVATE LIMITEDU80900KA2021PTC153650IndiaKarnataka27-10-2021
CARE4SIGN SAFETEC LIMITEDU72900KA2021PLC153672IndiaKarnataka27-10-2021
AVNM HOTELS AND RESORTS PRIVATE LIMITEDU55101KA2021PTC153695IndiaKarnataka27-10-2021
BRAMARAMBHA MALLIKARJUN FARMER PRODUCER COMPANY LIMITEDU01110KA2021PTC153685IndiaKarnataka27-10-2021
CONNECTED MINDS TECHNOLOGY PRIVATE LIMITEDU72900KA2021PTC153653IndiaKarnataka27-10-2021
SPECTROMUS TECHNOLOGIES PRIVATE LIMITEDU72900KA2021PTC153654IndiaKarnataka27-10-2021
REDIRECT MALL PRIVATE LIMITEDU72900KA2021PTC153658IndiaKarnataka27-10-2021
EQSENSE TECHNOLOGIES PRIVATE LIMITEDU72900KA2021PTC153660IndiaKarnataka27-10-2021
PARISHUDH TECHNOLOGIES PRIVATE LIMITEDU72900KA2021PTC153665IndiaKarnataka27-10-2021
LOSCOOP PRIVATE LIMITEDU72900KA2021PTC153680IndiaKarnataka27-10-2021
AGRAJAALAM PRIVATE LIMITEDU72900KA2021PTC153681IndiaKarnataka27-10-2021
WORTHYPROGRESS SOFTWARE DEVELOPMENT PRIVATE LIMITEDU72900KA2021PTC153688IndiaKarnataka27-10-2021
EVOLVE2ACHIEVE (OPC) PRIVATE LIMITEDU74999KA2021OPC153673IndiaKarnataka27-10-2021
VMERG MEDIA PRIVATE LIMITEDU74999KA2021PTC153669IndiaKarnataka27-10-2021
RISHI ANALYTICS PRIVATE LIMITEDU72900KA2021PTC153703IndiaKarnataka27-10-2021
ULTRALESSON TECH LABS PRIVATE LIMITEDU80903KA2021PTC153670IndiaKarnataka27-10-2021
QUBIXCONNECT PRIVATE LIMITEDU74999KA2021PTC153674IndiaKarnataka27-10-2021
LEARNIQO EDUCATION SERVICES PRIVATE LIMITEDU80903KA2021PTC153701IndiaKarnataka27-10-2021
MJVA HEALTHCARE PRIVATE LIMITEDU85190KA2021PTC153704IndiaKarnataka28-10-2021
HARSTUFF PRIVATE LIMITEDU37100KA2021PTC153719IndiaKarnataka28-10-2021
AMETHOS PHARMA PRIVATE LIMITEDU24290KA2021PTC153717IndiaKarnataka28-10-2021
INDOPEST AGRICHEM PRIVATE LIMITEDU24290KA2021PTC153729IndiaKarnataka28-10-2021
GREENGEN SUSTAINABILITY RESEARCH AND IMPLEMENTATION COUNCILU85300KA2021NPL153726IndiaKarnataka28-10-2021
QDS HOLDINGS PRIVATE LIMITEDU65990KA2021PTC153727IndiaKarnataka28-10-2021
AGRAHASANCAYA INVESTMENTS PRIVATE LIMITEDU65990KA2021PTC153749IndiaKarnataka28-10-2021
DANDAGUNDA BASAVANNA FARMERS PRODUCER COMPANY LIMITEDU01100KA2021PTC153742IndiaKarnataka28-10-2021
MEPISOL ENGINEERING PRIVATE LIMITEDU45202KA2021PTC153741IndiaKarnataka28-10-2021
MAKAM HERBS LIFE SCIENCES PRIVATE LIMITEDU24299KA2021PTC153731IndiaKarnataka28-10-2021
ARECOCITY BIO EXPORTS PRIVATE LIMITEDU26900KA2021PTC153744IndiaKarnataka28-10-2021
SRAGVEE DEVELOPERS PRIVATE LIMITEDU45309KA2021PTC153733IndiaKarnataka28-10-2021
FARM2HOMZ RETAIL PRIVATE LIMITEDU52609KA2021PTC153714IndiaKarnataka28-10-2021
NAM INFO PRIVATE LIMITEDU72900KA2021FTC153740IndiaKarnataka28-10-2021
AWIDEV INNOVATIONS (OPC) PRIVATE LIMITEDU72900KA2021OPC153708IndiaKarnataka28-10-2021
TWEDLEO PRIVATE LIMITEDU72900KA2021PTC153705IndiaKarnataka28-10-2021
BCHAIN INNOVATIONS PRIVATE LIMITEDU72900KA2021PTC153707IndiaKarnataka28-10-2021
JURIS ARENA PRIVATE LIMITEDU67100KA2021PTC153735IndiaKarnataka28-10-2021
BAABOO TECHNOLOGY PRIVATE LIMITEDU72900KA2021PTC153713IndiaKarnataka28-10-2021
WOUND CARE BILLING SPECIALISTS INDIA PRIVATE LIMITEDU74999KA2021PTC153746IndiaKarnataka28-10-2021
CHIRANTH MANPOWER SOLUTIONS PRIVATE LIMITEDU74999KA2021PTC153760IndiaKarnataka28-10-2021
RPG ASSOCIATES PRIVATE LIMITEDU74999KA2021PTC153763IndiaKarnataka28-10-2021
GLOBAL BUSINESS TECH PRIVATE LIMITEDU74999KA2021PTC153767IndiaKarnataka28-10-2021
STORIES WITH US (OPC) PRIVATE LIMITEDU22210KA2021OPC153766IndiaKarnataka28-10-2021
SUDHA PRINTS AND PUBLISHERS PRIVATE LIMITEDU22219KA2021PTC153712IndiaKarnataka28-10-2021
MILSEN HEALTHCARE PRIVATE LIMITEDU85100KA2021PTC153716IndiaKarnataka28-10-2021
ZAGISU PRIVATE LIMITEDU63030KA2021PTC153720IndiaKarnataka28-10-2021
NISARGA LIFE STYLE MARKETING PRIVATE LIMITEDU63030KA2021PTC153722IndiaKarnataka28-10-2021
ODSO CAR RENTALS PRIVATE LIMITEDU63030KA2021PTC153754IndiaKarnataka28-10-2021
SHIV CANCER CENTER PRIVATE LIMITEDU85110KA2021PTC153739IndiaKarnataka28-10-2021
THEO TRADING (OPC) PRIVATE LIMITEDU51909KA2021OPC153758IndiaKarnataka28-10-2021
JOHARA NUTRITION PRIVATE LIMITEDU51909KA2021PTC153709IndiaKarnataka28-10-2021
SRI NIMISHAMBHA INDIA PRIVATE LIMITEDU34300KA2021PTC153759IndiaKarnataka28-10-2021
424 VIVIGO INDIA PRIVATE LIMITEDU51909KA2021PTC153721IndiaKarnataka28-10-2021
SYEDS MODERN RICE MILLS PRIVATE LIMITEDU51909KA2021PTC153732IndiaKarnataka28-10-2021
PRAKRUTIGE-NEEDY PRIVATE LIMITEDU51909KA2021PTC153762IndiaKarnataka28-10-2021
PRAWEGA TECH SOLUTIONS PRIVATE LIMITEDU72200KA2021PTC153711IndiaKarnataka28-10-2021
KNR TECH SOLUTIONS PRIVATE LIMITEDU72200KA2021PTC153738IndiaKarnataka28-10-2021
SSOOTA AROMAS PRIVATE LIMITEDU24248KA2021PTC153764IndiaKarnataka28-10-2021
ARS JEWELLERY MAKERS PRIVATE LIMITEDU36999KA2021PTC153715IndiaKarnataka28-10-2021
MYCLEAR ACCOUNTS PRIVATE LIMITEDU67100KA2021PTC153757IndiaKarnataka28-10-2021
CODECAVE PRIVATE LIMITEDU72900KA2021PTC153724IndiaKarnataka28-10-2021
SAAG TECHNOLOGIES PRIVATE LIMITEDU72900KA2021PTC153743IndiaKarnataka28-10-2021
BH SANDS AND AGGREGATES PRIVATE LIMITEDU14290KA2021PTC153706IndiaKarnataka28-10-2021
ZTRIX TECHNOLOGIES PRIVATE LIMITEDU72900KA2021PTC153745IndiaKarnataka28-10-2021
INSPIREWAVE TECHNOLOGIES PRIVATE LIMITEDU72900KA2021PTC153747IndiaKarnataka28-10-2021
CARRETX TECHNOLOGIES PRIVATE LIMITEDU72900KA2021PTC153748IndiaKarnataka28-10-2021
NAVITHYAM FOOD PRODCUTS PRIVATE LIMITEDU15110KA2021PTC153730IndiaKarnataka28-10-2021
RED CIRCUTE INDIA PRIVATE LIMITEDU72900KA2021PTC153765IndiaKarnataka28-10-2021
KRAVINGS SOLUTIONS PRIVATE LIMITEDU55204KA2021PTC153718IndiaKarnataka28-10-2021
FORTUNATE INFRATECH PRIVATE LIMITEDU70109KA2021PTC153723IndiaKarnataka28-10-2021
JONES PROPERTY MANAGEMENT PRIVATE LIMITEDU70109KA2021PTC153725IndiaKarnataka28-10-2021
VIKIAN GLOBAL ENTERPRISES PRIVATE LIMITEDU70109KA2021PTC153734IndiaKarnataka28-10-2021
GRILLBEQUE PRIVATE LIMITEDU15400KA2021PTC153753IndiaKarnataka28-10-2021
TKP TEACHERS EMPOWERMENT FOUNDATIONU80900KA2021NPL153736IndiaKarnataka28-10-2021
QUICKBASE INDIA PRIVATE LIMITEDU74999KA2021FTC153710IndiaKarnataka28-10-2021
GUARDIAN ROOF CARE (OPC) PRIVATE LIMITEDU74999KA2021OPC153761IndiaKarnataka28-10-2021
ORCASBLUE PRIVATE LIMITEDU74999KA2021PTC153737IndiaKarnataka28-10-2021
BARBERCO STUDIO PRIVATE LIMITEDU93020KA2021PTC153755IndiaKarnataka28-10-2021
VEARVEE GAMES PRIVATE LIMITEDU92419KA2021PTC153728IndiaKarnataka28-10-2021
LIVING WATER DISTILLERY PRIVATE LIMITEDU15549KA2021PTC153751IndiaKarnataka28-10-2021
AREHALLI BIKKODU FARMER PRODUCER COMPANYLIMITEDU01110KA2021PTC153750IndiaKarnataka28-10-2021
KRISHIHIT FARMER PRODUCER COMPANY LIMITEDU01110KA2021PTC153756IndiaKarnataka28-10-2021
ENRICH WATER PRIVATE LIMITEDU15490KA2021PTC153752IndiaKarnataka28-10-2021
TESUPA PRIVATE LIMITEDU19110KA2021PTC153793IndiaKarnataka29-10-2021
DTRANS EMS PRIVATE LIMITEDU32309KA2021PTC153785IndiaKarnataka29-10-2021
NAVA MADHYAMA PRIVATE LIMITEDU22300KA2021PTC153788IndiaKarnataka29-10-2021
AMYGO RETAIL PRIVATE LIMITEDU51398KA2021PTC153776IndiaKarnataka29-10-2021
GREYSTORM EXPERIENTIAL PRIVATE LIMITEDU92490KA2021PTC153798IndiaKarnataka29-10-2021
HASH BELLS (OPC) PRIVATE LIMITEDU72900KA2021OPC153784IndiaKarnataka29-10-2021
ADTEC ELECTRONIC PRODUCTS PRIVATE LIMITEDU72900KA2021PTC153774IndiaKarnataka29-10-2021
SUNIX AI PRIVATE LIMITEDU72900KA2021PTC153777IndiaKarnataka29-10-2021
DIYAERO AEROSPACE PRIVATE LIMITEDU72900KA2021PTC153786IndiaKarnataka29-10-2021
RUSHO CLOTHING PRIVATE LIMITEDU18100KA2021PTC153770IndiaKarnataka29-10-2021
BANGALORE BP 2 PRIVATE LIMITEDU45500KA2021FTC153775IndiaKarnataka29-10-2021
SHIVPARVATI KRISHI PRODUCER COMPANY LIMITEDU01100KA2021PTC153791IndiaKarnataka29-10-2021
GBL SPORTS PRIVATE LIMITEDU74999KA2021FTC153780IndiaKarnataka29-10-2021
FAB HABITAT (INDIA) PRIVATE LIMITEDU74999KA2021FTC153794IndiaKarnataka29-10-2021
PRIONS BIOTECH PRIVATE LIMITEDU24100KA2021PTC153781IndiaKarnataka29-10-2021
VBECO RETAIL PRIVATE LIMITEDU36990KA2021PTC153769IndiaKarnataka29-10-2021
WM DIGITAL PRIVATE LIMITEDU74999KA2021PTC153787IndiaKarnataka29-10-2021
SHRI KUKKE SECURITY & MAN POWER SERVICESPRIVATE LIMITEDU74999KA2021PTC153796IndiaKarnataka29-10-2021
PLAYDAWN GAMES TRAINING INSTITUTE PRIVATE LIMITEDU72200KA2021PTC153772IndiaKarnataka29-10-2021
LEARN CLOUD PRIVATE LIMITEDU72200KA2021PTC153779IndiaKarnataka29-10-2021
PIOTRADE PRIVATE LIMITEDU36990KA2021PTC153797IndiaKarnataka29-10-2021
ADENYA ENERGY PRIVATE LIMITEDU40100KA2021PTC153771IndiaKarnataka29-10-2021
PROMINENT PROPERTIES BANGALORE PRIVATE LIMITEDU45200KA2021PTC153778IndiaKarnataka29-10-2021
AWADHSUDAMA MEDISALES PRIVATE LIMITEDU24290KA2021PTC153795IndiaKarnataka29-10-2021
RAJA BUILDCORN AND INFRASTRUCTURE PRIVATE LIMITEDU45201KA2021PTC153773IndiaKarnataka29-10-2021
ASSA REAL ESTATE PRIVATE LIMITEDU45201KA2021PTC153790IndiaKarnataka29-10-2021
AHAM HOSPITALITIES (OPC) PRIVATE LIMITEDU63031KA2021OPC153789IndiaKarnataka29-10-2021
HOLE BASAVESHWAR CHITS PRIVATE LIMITEDU65100KA2021PTC153768IndiaKarnataka29-10-2021
FACTO TECHNOLOGY PRIVATE LIMITEDU74140KA2021PTC153792IndiaKarnataka29-10-2021
DVI SOLUTIONS (G) PRIVATE LIMITEDU74996KA2021PTC153782IndiaKarnataka29-10-2021
FHIRENGINE INDIA PRIVATE LIMITEDU72900KA2021FTC153783IndiaKarnataka29-10-2021
RANGA PHARMACEUTICALS PRIVATE LIMITEDU24293KA2021PTC153800IndiaKarnataka30-10-2021
ROBOTICSCHOOLS PRIVATE LIMITEDU80904KA2021PTC153821IndiaKarnataka30-10-2021
PRANAMS CONSTRUCTION PRIVATE LIMITEDU45309KA2021PTC153801IndiaKarnataka30-10-2021
COMIC SOLUTION PRIVATE LIMITEDU52601KA2021PTC153829IndiaKarnataka30-10-2021
LOGIY PROJECTS PRIVATE LIMITEDU45309KA2021PTC153833IndiaKarnataka30-10-2021
PRASANTHI TECHNOLOGIES (OPC) PRIVATE LIMITEDU72900KA2021OPC153810IndiaKarnataka30-10-2021
TOSHINYI TECHNOLOGIES PRIVATE LIMITEDU72900KA2021PTC153802IndiaKarnataka30-10-2021
ENGRAVEMINDS EDUCATION TECHNOLOGY PRIVATE LIMITEDU72900KA2021PTC153805IndiaKarnataka30-10-2021
M G ARUN KUMAR CONSTRUCTIONS PRIVATE LIMITEDU70109KA2021PTC153822IndiaKarnataka30-10-2021
RIDDHI TEACHING SOLUTIONS PRIVATE LIMITEDU72900KA2021PTC153812IndiaKarnataka30-10-2021
AAMIRI BUILDERS AND DEVELOPERS PRIVATE LIMITEDU70109KA2021PTC153834IndiaKarnataka30-10-2021
YASHONANDI FOOD PRODUCTS PRIVATE LIMITEDU15549KA2021PTC153814IndiaKarnataka30-10-2021
BOOLE SHOP PRIVATE LIMITEDU72900KA2021PTC153817IndiaKarnataka30-10-2021
NAVIETM SOFTWARE PRIVATE LIMITEDU72900KA2021PTC153818IndiaKarnataka30-10-2021
DZZIGN TECHNOVATIVE PRIVATE LIMITEDU72900KA2021PTC153823IndiaKarnataka30-10-2021
ZONG PRIVATE LIMITEDU72900KA2021PTC153827IndiaKarnataka30-10-2021
CHURUMURI HOUSE PRIVATE LIMITEDU55209KA2021PTC153816IndiaKarnataka30-10-2021
ONIONLINKS TECHNOLOGY PRIVATE LIMITEDU17299KA2021PTC153799IndiaKarnataka30-10-2021
RIPSIL AUTOMATION PRIVATE LIMITEDU72900KA2021PTC153831IndiaKarnataka30-10-2021
INTELLIC INFOSYSTEMS PRIVATE LIMITEDU31100KA2021PTC153824IndiaKarnataka30-10-2021
VGGH FACILITY MANAGEMENT PRIVATE LIMITEDU74910KA2021PTC153825IndiaKarnataka30-10-2021
TIRANG RETAILS PRIVATE LIMITEDU17299KA2021PTC153807IndiaKarnataka30-10-2021
POLYTECHNIC POWER ENGINEERS PRIVATE LIMITEDU74990KA2021PTC153828IndiaKarnataka30-10-2021
ARADRAA ROBOTICS PRIVATE LIMITEDU33100KA2021PTC153826IndiaKarnataka30-10-2021
SOUTHERN INDIA OPEN ACCESS CONSUMERS FEDERATIONU85300KA2021NPL153804IndiaKarnataka30-10-2021
THYSMART SYSTEMS PRIVATE LIMITEDU72200KA2021PTC153830IndiaKarnataka30-10-2021
LIFESPACE INFRA PROJECTS PRIVATE LIMITEDU74999KA2021PTC153806IndiaKarnataka30-10-2021
KEHAR FOODS INTERNATIONAL INDIA PRIVATE LIMITEDU51909KA2021FTC153803IndiaKarnataka30-10-2021
RAHA GLOBAL VENTURES PRIVATE LIMITEDU74999KA2021PTC153808IndiaKarnataka30-10-2021
COEXLION PRIVATE LIMITEDU74999KA2021PTC153809IndiaKarnataka30-10-2021
PNT VENTURES (OPC) PRIVATE LIMITEDU51909KA2021OPC153835IndiaKarnataka30-10-2021
AIOFT JOBS INDIA PRIVATE LIMITEDU74999KA2021PTC153811IndiaKarnataka30-10-2021
FINLIT CONSULTING PRIVATE LIMITEDU74999KA2021PTC153813IndiaKarnataka30-10-2021
NIVIDIPA PROP SERVICES PRIVATE LIMITEDU74999KA2021PTC153815IndiaKarnataka30-10-2021
PROSPERMINDS TECHNOLOGIES PRIVATE LIMITEDU74999KA2021PTC153819IndiaKarnataka30-10-2021
LOGIY VENTURES PRIVATE LIMITEDU45203KA2021PTC153832IndiaKarnataka30-10-2021
RS HOUZBALCONY PRIVATE LIMITEDU74999KA2021PTC153820IndiaKarnataka30-10-2021

Leave a Reply

Fill in your details below or click an icon to log in:

WordPress.com Logo

You are commenting using your WordPress.com account. Log Out /  Change )

Google photo

You are commenting using your Google account. Log Out /  Change )

Twitter picture

You are commenting using your Twitter account. Log Out /  Change )

Facebook photo

You are commenting using your Facebook account. Log Out /  Change )

Connecting to %s

This site uses Akismet to reduce spam. Learn how your comment data is processed.